GFSGL_250_spd_021.txt.gz
Wind_Speed
42 43 44 45 45 48 49 49 46 51 53 54 51 50 46 47 53 53 55 57 62 68 77 71 60 61 51 57 45 41 52 48 51 77 86 70 57 31 36 48 70 80 83
45 46 47 48 47 51 43 50 41 40 50 58 55 54 51 56 56 61 55 63 69 81 82 73 69 63 64 48 46 49 56 63 60 79 86 83 73 53 41 57 59 51 76
50 51 52 52 52 51 52 46 41 46 40 58 58 60 67 59 58 54 65 77 81 81 77 68 66 67 60 56 50 56 54 59 67 89 89 92 83 59 44 56 59 46 51
55 55 56 54 50 47 52 50 36 40 49 62 59 62 57 62 68 74 81 85 82 73 74 73 80 53 49 67 63 62 57 74 83 90 91 87 81 65 51 51 62 58 56
59 58 57 53 49 46 45 49 49 50 53 58 64 59 62 69 76 81 82 84 84 87 87 86 76 61 58 63 54 68 70 78 84 93 83 83 80 66 55 49 54 61 55
64 61 56 55 55 55 53 50 47 50 50 61 61 66 76 80 81 83 85 87 86 90 89 86 70 65 62 65 71 80 74 85 95 95 89 81 74 60 53 56 56 58 58
67 58 56 58 60 59 57 56 48 52 56 66 70 75 78 81 80 79 79 82 84 84 83 80 73 62 70 81 81 83 88 92 94 93 89 79 70 57 47 47 53 52 54
67 61 62 62 62 63 62 60 57 55 63 61 70 70 71 74 73 72 73 73 77 79 76 67 66 77 81 82 87 91 94 94 98 87 83 80 71 55 48 46 49 44 52
65 63 64 66 67 68 68 67 68 65 59 64 64 68 71 65 64 63 67 71 74 76 65 63 80 83 85 88 91 95 97 94 91 87 82 75 69 55 43 41 41 43 48
67 68 71 72 73 74 73 69 70 65 55 59 60 63 58 59 66 62 65 69 68 63 69 80 82 82 87 89 91 94 95 90 88 84 80 77 62 50 39 35 37 40 41
70 71 75 76 75 75 75 68 64 57 56 55 57 58 64 66 69 71 69 69 63 67 71 74 80 87 81 81 81 82 85 89 90 85 83 74 59 44 36 32 34 34 37
75 78 78 79 78 74 71 63 63 60 54 53 59 66 70 67 66 71 73 71 71 68 71 76 79 83 79 80 80 83 86 87 87 87 79 69 52 37 29 28 30 31 29
79 81 80 79 77 76 70 69 62 59 57 59 63 75 74 75 78 71 67 73 75 73 78 80 81 81 79 81 85 86 88 90 88 85 70 56 44 32 25 27 26 27 24
82 81 78 77 74 72 73 68 64 65 69 71 76 77 81 86 82 73 72 73 78 83 85 86 86 84 82 86 91 93 94 94 80 70 58 48 36 28 23 25 23 23 25
83 80 78 75 77 76 74 73 72 73 77 79 81 85 90 79 76 75 79 80 84 86 90 88 85 86 90 92 95 97 88 74 66 60 51 38 30 26 22 24 24 23 23
77 78 78 75 74 72 70 73 78 86 90 93 92 92 89 84 83 83 84 87 91 91 94 90 90 94 97 98 93 78 71 66 60 54 43 33 27 24 23 25 25 24 22
76 77 76 76 77 77 78 78 76 78 80 84 89 94 94 91 86 84 86 90 92 94 95 96 96 99 95 81 68 66 63 56 52 47 38 29 25 23 25 26 25 23 21
79 78 76 80 81 83 85 85 84 85 89 94 97 101 100 90 87 89 91 93 94 91 96 99 94 81 70 64 60 57 54 50 46 40 32 26 24 26 28 27 25 21 19
81 82 81 84 87 94 94 96 98 99 95 104 102 85 82 85 88 89 91 93 97 96 89 75 68 64 60 56 53 50 47 43 40 33 28 24 25 29 32 29 25 20 19
85 85 89 92 95 97 97 101 108 99 92 81 84 81 84 85 88 92 97 97 87 74 68 64 62 58 54 49 46 45 44 38 33 30 27 24 27 31 34 33 29 25 22
88 91 94 96 101 104 106 88 83 79 86 83 86 88 92 94 95 96 90 72 68 66 65 61 56 51 49 47 45 41 36 32 30 26 24 24 29 34 37 35 35 29 28
91 94 95 99 94 86 85 81 81 84 89 90 93 94 96 96 87 70 68 65 61 58 53 47 45 42 42 39 37 33 31 28 26 24 24 25 30 35 42 39 38 33 31
89 89 83 81 81 84 86 87 90 93 96 97 98 95 86 71 65 60 54 51 48 45 41 39 37 35 33 31 29 27 26 25 22 21 23 26 30 35 46 44 42 37 33
80 82 83 84 87 89 92 94 95 96 92 83 74 68 65 58 55 49 44 41 39 36 34 33 33 32 29 28 26 25 24 22 21 21 22 25 29 36 44 48 49 44 42
84 86 88 90 92 94 95 91 80 70 65 63 59 55 51 48 44 42 41 41 39 36 34 32 31 30 29 27 25 24 24 23 21 21 22 24 28 33 40 52 54 52 48
88 89 92 92 91 83 72 65 61 58 55 51 48 46 44 42 41 41 40 38 38 38 36 35 33 31 30 27 25 24 24 23 22 20 20 22 24 29 38 43 58 56 53

GFSGL_250_spd_024.txt.gz
Wind_Speed
37 35 36 40 42 44 46 45 44 52 45 40 42 47 46 52 53 52 55 58 56 59 48 55 70 72 66 57 57 31 29 40 42 41 42 49 50 56 52 48 42 36 55
40 37 38 41 45 47 50 50 48 46 45 41 40 48 47 51 56 60 64 59 56 52 53 69 75 66 66 64 40 42 41 38 48 48 58 49 54 56 63 54 48 49 52
43 41 43 44 48 50 52 50 45 43 47 48 48 50 52 54 59 57 64 62 53 68 72 75 75 71 69 65 61 53 47 44 51 54 54 66 64 67 69 64 51 49 57
48 47 48 48 50 48 49 46 48 47 47 48 48 49 51 59 64 66 67 69 72 77 81 79 80 78 76 72 64 66 53 49 58 60 64 69 74 76 79 79 67 56 52
53 54 55 55 52 50 45 43 46 49 52 51 49 54 60 64 66 67 71 75 78 73 72 74 75 76 68 66 60 56 53 61 68 69 72 71 78 84 86 78 70 58 51
58 61 62 60 55 51 46 43 46 51 51 55 58 61 63 68 69 70 74 73 75 67 70 67 62 59 66 63 64 66 64 70 71 74 76 82 88 86 78 70 70 58 55
63 66 68 65 59 55 48 47 52 55 58 60 61 66 65 70 71 72 70 71 65 62 64 67 72 70 61 60 64 67 72 69 73 77 82 82 75 73 69 68 67 62 53
69 71 72 71 67 61 53 52 54 59 64 66 67 68 68 68 68 69 67 66 60 62 65 70 72 71 62 58 61 68 72 74 73 76 73 71 71 69 65 65 67 61 56
71 74 75 74 69 63 60 59 61 65 66 69 71 69 70 63 62 66 66 69 68 69 72 70 72 65 65 70 68 71 73 73 76 74 72 71 72 70 66 65 62 54 48
73 73 72 69 67 66 66 67 68 72 73 74 72 69 59 58 61 62 65 65 69 74 77 75 71 69 66 69 70 73 73 80 78 74 71 72 75 73 64 59 54 49 47
73 71 69 68 68 71 71 70 74 76 78 72 69 65 64 60 60 60 66 73 73 75 79 80 72 69 69 74 76 78 78 78 74 74 78 80 78 74 65 51 47 44 43
71 70 69 71 69 71 75 75 76 75 76 71 68 69 64 62 64 67 71 75 78 81 82 81 84 80 76 76 77 77 78 77 76 80 83 83 82 72 51 45 39 38 38
71 70 70 75 76 73 75 79 79 77 75 73 77 74 63 65 70 73 79 81 84 84 84 82 83 82 80 78 80 76 78 77 80 84 85 84 73 61 49 41 35 34 33
73 72 74 74 78 80 77 71 76 75 76 76 77 73 71 73 73 73 74 78 85 86 88 93 93 85 78 77 77 80 80 82 87 87 83 72 62 54 40 36 32 30 30
75 78 76 79 80 80 78 75 78 80 79 80 78 79 78 80 81 85 88 92 93 95 94 84 73 78 77 78 79 83 85 87 87 75 64 59 56 45 34 31 29 28 30
79 80 79 80 79 80 76 78 82 80 81 80 82 81 83 85 89 94 96 96 84 78 75 77 76 79 81 85 87 87 85 78 67 60 56 51 48 39 29 27 29 28 29
78 80 81 80 78 76 77 82 82 83 83 83 84 85 88 90 94 91 84 78 76 79 77 83 83 87 88 89 85 75 64 59 55 52 50 45 42 31 28 26 30 31 30
81 79 77 79 77 80 83 84 84 84 84 85 87 89 91 90 86 82 83 81 81 83 84 87 89 90 85 74 65 60 56 52 48 46 43 40 37 31 28 28 31 33 31
78 78 77 78 80 82 82 84 86 89 87 90 91 91 88 82 84 85 86 87 89 89 90 90 84 72 66 65 59 54 50 47 43 41 38 38 35 29 28 29 33 33 32
72 74 76 78 79 82 84 88 88 90 90 90 86 83 86 88 88 89 91 93 93 91 85 71 63 61 56 55 52 48 45 42 40 38 35 34 31 29 29 31 36 32 29
72 76 79 81 85 86 86 88 88 85 84 86 86 88 90 90 92 93 95 90 79 68 63 58 55 51 49 46 44 42 39 37 35 33 31 31 30 30 30 34 39 34 32
77 80 86 83 83 84 85 85 84 85 88 91 91 90 90 91 92 89 73 66 63 59 53 51 45 44 42 40 37 35 32 31 29 28 28 29 28 28 30 37 43 37 36
81 82 82 85 83 82 83 85 88 90 91 91 90 94 92 86 71 63 59 55 51 49 46 44 42 41 39 37 33 31 28 26 25 25 24 25 25 27 31 38 46 42 40
79 82 81 81 81 84 86 88 89 92 91 93 92 82 69 63 57 52 50 46 43 42 42 43 42 40 36 34 33 30 26 25 24 23 23 22 23 26 30 38 48 45 41
79 79 79 81 84 86 88 90 93 92 94 83 69 62 55 48 42 40 39 38 39 39 39 37 36 35 33 31 29 28 25 24 24 23 21 20 20 22 28 35 45 49 44
81 82 85 85 88 91 92 93 91 90 74 62 51 43 40 38 36 35 36 36 36 35 35 35 35 34 33 32 30 27 25 24 24 22 20 18 19 19 23 31 40 53 49

GFSGL_250_spd_027.txt.gz
Wind_Speed
35 33 34 35 34 35 38 39 43 47 49 47 42 43 45 45 44 47 49 51 54 57 59 49 46 54 62 73 65 65 59 52 47 40 28 33 34 35 33 37 43 45 49
39 38 39 40 39 40 41 42 45 48 51 46 43 44 44 44 49 49 52 56 58 58 50 54 62 74 76 73 66 64 52 49 43 48 37 34 40 49 45 45 50 53 60
43 43 43 44 44 44 45 48 51 52 53 47 45 44 47 48 50 52 53 54 60 61 66 70 73 73 72 65 61 54 51 54 60 52 47 45 47 48 51 56 60 62 61
48 48 47 48 48 48 48 51 53 55 55 50 47 47 49 52 53 57 58 61 62 62 66 69 66 70 65 63 56 56 60 65 51 50 48 47 55 58 58 62 63 68 76
53 52 50 53 53 53 54 56 56 55 54 51 49 53 53 56 60 64 63 64 64 62 65 66 68 65 59 60 61 65 68 60 49 52 54 55 62 60 64 66 68 75 74
57 55 56 58 58 59 60 61 59 57 54 53 54 52 57 59 63 69 66 65 65 65 62 64 63 59 63 65 69 65 63 57 57 53 67 64 69 67 68 71 77 72 67
60 60 61 62 63 65 65 66 64 60 56 53 52 54 58 61 67 68 68 68 66 62 63 65 65 65 67 66 66 68 68 60 52 59 72 68 65 71 74 75 76 69 67
66 66 66 66 67 68 68 71 69 64 61 57 54 58 63 65 68 69 74 68 65 63 62 64 66 69 70 71 70 69 71 73 72 70 72 77 79 78 80 76 71 70 71
70 71 70 70 69 70 72 74 70 69 66 62 61 64 62 69 72 73 74 67 68 61 63 66 70 72 73 74 80 81 77 73 76 79 73 75 74 76 75 71 68 70 71
74 73 74 73 71 73 75 73 71 69 69 67 70 70 72 73 74 71 64 67 63 64 67 69 73 78 80 82 79 76 80 81 81 75 71 68 73 77 75 72 73 71 70
76 77 76 75 74 75 74 72 72 71 72 72 72 73 73 73 74 69 71 66 64 67 74 77 79 79 75 77 81 87 85 80 73 67 68 71 72 73 74 74 75 74 60
81 80 79 78 76 74 73 73 71 73 72 72 76 75 76 76 74 77 78 76 78 85 85 86 85 84 85 85 82 78 73 67 67 71 69 72 75 78 79 77 70 56 50
84 83 80 77 77 74 74 76 77 76 74 76 77 77 79 78 79 79 83 87 86 87 85 87 89 86 83 78 72 68 71 73 72 74 76 78 79 79 77 66 55 47 45
84 82 79 76 76 76 77 78 79 77 77 80 79 82 81 81 81 86 88 88 90 89 92 89 87 81 75 74 71 75 75 78 77 82 80 80 79 73 62 53 49 42 40
80 79 77 77 76 77 78 79 80 81 80 82 80 81 81 80 85 87 90 92 91 91 89 84 80 76 76 77 78 79 79 82 85 83 80 72 61 56 51 45 41 39 37
81 79 79 78 77 79 81 79 78 77 81 80 82 84 85 86 89 91 93 92 92 90 86 83 82 81 81 82 82 83 84 83 81 74 64 58 55 50 46 43 38 34 31
82 80 80 78 81 83 82 79 79 79 81 83 82 83 87 89 90 92 92 91 88 87 87 87 87 85 86 87 86 83 76 69 63 60 58 52 48 43 39 36 31 29 28
84 83 77 78 81 82 82 77 80 85 83 83 85 87 88 93 92 89 89 88 89 90 89 89 89 90 90 84 76 68 62 59 55 52 49 45 40 37 34 30 29 27 26
79 80 77 74 76 74 74 77 80 82 83 85 84 88 90 92 92 89 90 91 90 91 91 92 91 85 76 66 61 56 52 48 46 44 40 37 34 33 32 28 27 24 26
76 78 78 76 73 76 78 81 81 83 81 82 86 90 92 91 89 90 90 91 89 92 89 80 71 64 60 54 50 47 44 43 42 40 37 35 32 30 29 24 24 22 27
72 73 71 70 72 75 80 82 81 81 82 85 86 88 93 90 89 92 89 91 89 77 68 62 58 54 52 48 45 44 41 39 38 36 33 30 28 27 25 22 23 24 29
63 68 72 73 74 78 80 78 81 83 84 86 87 88 89 90 92 90 91 85 72 67 60 57 53 49 46 44 41 40 39 38 36 34 31 28 26 25 24 22 23 25 32
68 70 74 78 80 79 80 81 81 83 84 87 87 89 93 95 93 91 82 68 59 54 49 46 45 44 42 40 38 37 36 35 34 32 30 27 25 24 23 22 23 26 34
80 82 84 83 82 83 81 83 83 82 86 87 91 92 94 97 91 80 66 55 49 45 43 42 41 39 39 38 37 34 33 32 31 29 28 26 24 24 23 22 23 27 36
81 83 88 84 82 84 85 85 84 84 87 90 94 95 95 88 79 63 56 51 47 43 41 39 37 36 35 35 33 31 29 28 29 27 26 25 24 23 21 20 23 27 37
86 86 83 82 84 85 84 83 85 86 88 92 93 94 85 77 61 55 51 46 43 41 37 37 36 35 33 31 31 31 29 28 26 26 24 23 22 21 21 19 21 27 37

GFSGL_250_spd_030.txt.gz
Wind_Speed
33 34 34 33 34 35 36 35 37 40 42 47 50 52 54 55 49 47 47 51 51 51 56 56 52 54 58 59 57 60 57 57 54 45 40 28 45 47 41 39 42 34 32
35 37 38 38 38 38 40 40 42 44 46 48 50 55 57 54 52 52 50 50 54 57 60 58 56 56 56 56 56 54 53 51 52 49 48 49 49 47 33 39 49 42 42
39 40 42 42 42 43 43 44 47 48 50 52 54 55 57 56 54 52 52 53 55 56 61 59 59 58 58 57 57 53 55 58 58 52 54 59 55 44 41 39 42 52 52
43 46 47 47 47 48 49 48 50 51 53 54 57 59 56 53 53 52 54 55 57 59 62 61 63 59 57 58 57 59 59 61 60 63 65 62 55 46 39 49 54 54 58
49 51 53 51 51 52 54 54 54 55 56 57 59 62 60 56 54 54 56 58 61 60 66 63 60 56 57 58 57 59 63 64 65 67 66 64 64 54 45 45 60 65 70
54 57 55 56 56 57 58 59 58 60 60 61 63 64 60 59 57 56 56 56 60 65 64 65 62 61 60 59 60 63 67 71 72 74 72 68 58 56 57 56 59 68 73
59 61 60 60 62 63 62 62 63 65 65 66 67 66 64 62 57 60 60 63 65 65 65 65 61 59 59 62 65 69 69 72 75 72 71 69 69 70 60 65 69 75 71
63 66 65 65 66 66 65 65 66 70 71 71 71 71 68 64 63 61 62 67 67 66 66 64 64 64 67 71 75 76 82 88 81 78 76 76 75 69 68 68 73 76 77
67 71 68 68 69 70 69 69 71 74 76 76 74 72 73 70 64 64 69 70 68 70 69 69 66 68 71 79 82 84 88 84 82 80 75 70 69 67 66 67 68 65 70
72 74 71 71 73 73 73 73 75 79 80 80 77 73 74 74 71 74 73 71 72 77 75 67 66 68 73 84 88 88 85 83 82 77 71 67 66 65 64 66 67 69 72
74 77 76 75 75 76 77 76 80 83 82 81 78 76 77 76 75 77 75 71 76 78 76 70 75 76 83 90 92 92 84 79 77 72 70 70 70 70 69 71 76 77 78
79 79 80 80 79 79 80 79 81 83 79 77 77 77 78 76 76 75 74 80 82 79 78 80 80 88 90 91 92 89 84 81 79 76 74 75 74 76 79 79 79 78 76
84 83 83 83 82 84 83 83 81 80 79 79 79 79 82 82 77 77 81 84 84 83 84 81 85 88 92 93 91 88 88 86 84 81 79 79 80 81 81 81 78 73 67
86 87 86 85 86 86 86 84 83 80 78 78 81 80 79 82 79 77 82 85 86 86 83 87 91 92 94 92 92 93 90 87 86 86 84 82 81 79 74 68 62 55 52
87 85 84 84 84 84 83 83 81 79 80 80 79 82 83 79 77 79 84 87 90 86 87 90 92 94 93 93 93 92 92 91 89 86 81 76 69 63 59 55 52 51 48
86 84 83 83 83 83 84 80 79 80 78 80 82 83 80 78 78 83 86 86 86 88 90 90 94 94 94 96 95 94 92 87 81 75 68 61 59 57 54 51 47 44 41
83 82 81 81 81 82 82 85 82 78 77 75 81 82 79 79 81 83 86 87 88 90 92 94 96 95 100 98 95 90 78 68 63 59 58 55 52 51 48 45 42 39 35
81 81 78 78 79 80 82 79 75 75 68 78 81 81 81 81 83 88 90 88 87 92 92 95 96 101 97 94 83 74 68 61 56 53 51 47 46 46 42 38 37 34 32
72 72 76 78 77 75 73 74 73 73 70 69 73 79 82 85 86 90 89 87 90 91 93 96 98 99 91 79 69 62 57 53 51 47 45 42 42 41 37 34 32 30 29
73 72 69 70 71 70 74 73 71 66 69 75 79 84 84 84 85 86 87 90 88 91 96 95 99 91 76 66 60 54 50 47 45 43 42 40 39 36 32 30 29 26 26
60 59 60 61 64 71 73 72 70 71 73 76 81 87 85 84 85 88 90 89 88 91 95 98 91 77 63 58 54 50 47 45 43 41 39 36 34 32 28 26 23 22 23
49 56 62 66 66 73 75 77 76 80 80 79 83 88 94 91 86 89 88 86 88 93 95 91 79 64 59 56 53 48 44 42 41 38 35 32 31 29 25 22 20 20 21
53 68 70 72 72 79 83 82 84 89 92 94 92 89 91 85 85 82 82 85 92 91 87 79 65 58 53 50 47 46 45 43 39 36 35 31 29 27 24 22 19 18 18
65 66 70 75 79 79 80 84 90 94 97 95 93 92 87 85 83 81 83 90 90 83 78 64 56 51 50 47 46 43 43 42 40 36 32 31 27 26 25 23 21 18 17
74 78 80 81 85 88 87 94 98 96 88 85 86 80 80 82 86 88 92 86 82 77 64 55 50 47 45 45 42 39 39 39 38 36 31 29 27 25 24 23 21 20 19
76 79 82 87 89 93 95 92 89 80 80 78 79 80 82 86 86 88 85 80 77 65 54 49 46 44 43 41 41 40 38 36 35 35 31 27 25 24 23 22 21 20 19

GFSGL_250_spd_033.txt.gz
Wind_Speed
30 31 31 32 30 31 31 30 31 38 42 39 41 44 47 50 52 54 55 53 48 48 48 49 51 51 52 51 48 46 44 45 46 45 43 42 44 44 36 43 52 36 39
34 35 35 35 34 34 35 35 37 41 46 44 45 46 48 51 55 55 58 56 54 53 52 53 55 55 54 53 49 47 45 46 47 49 49 48 47 44 46 51 47 42 40
40 40 40 40 39 40 41 40 42 45 48 47 48 50 51 52 55 56 57 56 58 56 56 57 57 58 60 57 52 46 46 46 47 50 52 56 56 51 53 56 54 52 51
42 43 45 45 45 46 47 48 48 51 52 51 51 53 55 55 58 60 61 58 60 60 59 60 61 61 60 60 52 51 51 52 50 52 56 62 62 62 61 59 57 50 45
48 50 51 52 52 52 52 53 54 56 58 57 55 56 57 59 61 64 63 62 62 60 60 60 63 65 59 57 54 54 56 54 58 59 63 65 68 71 68 61 59 60 52
53 57 57 59 58 57 57 59 60 58 60 60 59 61 61 62 65 66 67 66 63 64 63 65 67 63 63 58 55 59 60 61 62 63 66 74 79 74 73 67 62 60 59
60 62 64 64 65 63 61 64 64 61 62 64 65 66 67 65 66 68 69 68 65 65 66 69 68 62 61 56 53 57 62 64 67 68 80 81 80 77 72 67 62 61 62
65 66 68 68 70 69 66 67 66 65 66 66 69 71 71 71 69 69 75 74 69 68 68 73 70 58 58 51 54 57 65 69 71 80 84 85 80 76 71 70 68 64 62
69 71 74 73 75 72 70 69 69 70 70 68 70 74 78 78 75 76 75 72 71 68 71 70 70 62 62 58 63 65 69 78 86 85 86 84 80 78 77 75 72 67 65
73 75 76 75 78 77 74 73 73 72 73 72 73 76 81 88 80 82 77 71 73 72 76 76 72 72 67 67 62 69 80 84 89 88 88 85 84 85 83 81 78 74 73
79 79 76 78 80 80 78 76 76 76 76 76 78 81 81 86 85 80 80 78 77 75 77 74 75 74 74 73 79 81 85 89 93 91 89 93 97 92 88 85 82 80 79
86 83 79 79 82 82 83 79 80 79 80 80 82 84 83 81 81 82 80 79 78 80 71 70 76 78 75 85 87 87 86 90 92 94 95 100 100 97 92 85 81 76 72
91 87 85 84 83 85 84 80 83 84 84 84 85 83 80 79 79 79 80 81 79 75 72 75 77 85 89 88 89 89 90 93 95 98 102 101 97 90 80 73 67 62 59
90 89 89 88 89 89 88 87 87 88 87 85 83 81 80 79 80 77 80 78 78 79 79 82 88 89 91 89 88 91 95 96 98 101 102 95 84 73 67 62 58 55 54
88 90 91 90 90 90 84 84 85 85 82 81 81 80 77 78 77 75 76 80 76 82 86 88 89 91 89 89 90 96 96 96 99 99 92 80 73 65 58 53 50 47 46
83 83 80 72 75 78 76 72 66 69 77 75 79 79 79 78 79 74 70 74 79 83 83 88 90 88 89 90 94 93 94 96 97 93 80 71 64 58 52 49 45 43 44
69 72 71 72 75 68 69 68 71 69 66 78 80 80 79 73 72 71 72 73 79 81 83 88 92 94 92 92 93 91 93 91 87 73 66 60 55 51 46 44 42 41 41
61 58 65 86 81 75 76 76 75 71 74 75 74 71 71 72 69 69 71 77 80 85 87 94 96 97 91 90 88 92 90 85 73 64 59 54 49 45 42 40 39 39 38
48 54 65 66 69 70 68 68 69 67 67 71 74 72 71 67 66 74 80 83 85 87 96 100 98 96 89 87 91 90 84 73 64 56 51 47 45 41 38 36 35 34 34
55 59 58 57 58 60 60 60 62 62 64 63 67 63 67 69 73 79 83 88 92 98 101 102 97 90 88 90 89 83 73 65 59 54 51 47 43 39 37 34 33 31 30
49 47 54 54 53 56 55 56 54 54 58 65 72 69 70 75 81 84 86 89 97 103 91 89 83 87 88 88 81 73 64 57 55 53 48 45 43 40 36 32 30 28 27
39 36 36 36 43 45 52 54 54 55 56 67 74 77 80 84 83 89 92 95 102 91 85 85 86 86 85 79 74 64 56 51 50 49 46 43 41 38 34 30 27 26 23
28 28 39 55 59 57 55 56 66 64 68 73 78 81 81 86 88 91 96 94 94 88 87 87 88 82 79 75 63 55 51 48 47 47 45 43 39 37 32 28 25 24 21
42 47 54 62 60 70 76 72 72 69 70 74 78 82 85 88 91 100 91 86 88 85 86 88 85 80 74 67 55 50 46 46 46 44 43 40 38 36 32 27 24 23 19
46 57 65 62 63 69 75 75 79 83 87 90 90 91 93 96 93 92 89 86 89 82 82 88 79 73 69 59 49 45 44 44 44 42 40 39 37 34 32 27 23 21 19
56 59 64 64 69 71 77 81 85 88 88 89 94 97 99 99 95 91 86 90 76 81 83 77 74 71 65 52 46 44 42 42 41 40 38 37 36 33 31 28 23 20 18

GFSGL_250_spd_039.txt.gz
Wind_Speed
24 25 30 30 29 28 25 27 28 29 30 31 33 34 36 37 41 45 47 49 51 52 52 50 49 51 49 54 56 56 55 56 52 51 47 46 43 41 41 39 38 38 37
30 26 30 35 34 33 33 31 31 33 34 35 35 36 38 41 44 49 51 52 54 57 58 58 54 52 53 60 59 57 57 61 59 53 54 48 45 45 46 47 47 47 49
34 33 31 37 38 36 37 37 37 37 39 41 41 43 41 44 46 50 53 56 59 61 62 62 55 59 56 59 61 59 63 63 63 61 61 56 53 50 50 51 53 52 54
39 39 37 37 42 42 42 43 44 42 44 46 47 48 48 47 50 52 54 59 63 64 67 63 52 55 57 70 66 63 63 64 61 61 63 61 56 53 55 59 61 61 58
49 45 46 41 46 48 47 48 49 47 48 49 51 53 53 53 55 58 58 62 67 69 63 46 49 57 70 71 67 66 67 64 61 62 64 63 62 60 58 66 70 69 72
52 52 51 48 51 55 53 53 53 54 52 52 55 57 57 59 60 62 64 67 71 65 48 47 57 68 65 72 69 66 65 66 66 67 68 66 61 60 67 73 72 72 71
56 58 57 57 60 61 59 59 57 58 57 58 59 59 61 63 64 67 69 73 73 53 56 51 53 70 75 75 66 69 69 67 67 70 66 67 64 68 75 78 84 83 73
65 64 63 63 68 67 64 64 64 63 63 63 65 63 64 67 68 70 72 72 59 56 51 61 64 71 77 67 71 73 76 70 70 63 67 71 79 87 83 95 88 78 77
74 71 71 70 68 70 69 70 69 68 69 69 68 68 68 68 71 74 72 62 66 56 62 61 83 82 77 74 76 78 77 79 73 72 76 82 90 92 100 97 90 83 80
80 80 80 78 75 75 73 74 75 75 76 76 74 73 72 72 76 77 64 61 57 53 60 73 79 81 77 80 77 83 82 80 84 85 81 81 87 99 96 94 90 89 87
83 87 84 85 81 82 79 78 79 79 82 81 79 74 74 77 78 72 64 60 58 63 73 71 76 80 77 82 83 85 88 89 86 81 84 87 95 105 107 103 94 89 84
72 78 84 86 87 88 85 83 86 85 87 84 81 78 79 79 74 72 55 40 65 67 70 72 76 81 83 89 92 90 93 90 85 86 90 94 101 112 111 106 91 84 77
61 63 65 72 76 82 82 78 79 81 77 82 82 77 74 75 66 51 48 57 57 62 71 67 73 79 85 90 94 96 97 87 87 90 95 102 109 116 110 95 85 77 67
52 54 55 53 59 62 63 62 57 55 54 54 51 43 46 44 49 41 56 77 72 72 79 83 85 90 92 101 99 100 98 91 91 94 101 107 113 112 104 88 77 64 59
47 45 43 41 39 38 36 33 30 22 30 37 34 36 39 42 51 67 74 79 80 84 95 97 93 90 94 101 102 102 91 88 93 94 106 109 115 113 90 81 68 59 55
39 37 25 14 20 28 28 32 35 45 49 52 45 68 56 53 64 67 78 75 80 93 100 99 96 98 99 102 101 89 87 89 96 101 105 113 109 106 88 76 64 56 53
39 25 32 39 23 34 29 37 47 44 40 56 47 66 77 73 92 81 80 85 89 93 95 99 102 100 103 105 95 86 87 89 98 102 110 108 115 92 83 71 62 56 52
37 27 22 27 18 20 20 31 58 50 61 60 55 58 66 78 85 84 81 87 86 89 97 103 102 104 100 91 89 88 89 93 101 110 111 117 101 86 79 68 59 56 50
46 44 45 46 31 38 39 63 64 66 64 61 75 78 70 75 74 76 85 86 86 91 102 100 101 98 91 90 88 91 95 100 106 111 115 112 92 83 76 65 57 52 48
57 57 50 41 44 47 57 53 67 77 80 74 75 73 86 78 75 79 83 88 94 99 100 101 91 90 92 86 89 96 99 100 105 110 108 100 88 79 72 62 54 49 45
48 51 44 47 50 53 55 58 67 79 81 84 80 83 83 93 93 92 93 95 98 100 104 102 93 89 80 84 88 91 98 100 106 100 92 89 79 74 68 58 52 48 46
49 49 38 49 60 63 69 76 75 79 83 82 84 85 87 96 103 101 104 106 108 109 105 96 90 78 79 85 93 98 103 106 103 94 88 81 75 70 65 55 50 48 45
55 53 54 54 60 55 62 71 69 63 65 68 72 77 82 96 98 99 100 103 104 107 101 85 79 83 88 94 102 105 105 106 96 92 84 78 71 66 62 54 49 46 43
64 64 60 61 57 67 68 73 78 79 82 85 77 80 81 82 88 93 95 91 85 81 75 77 83 87 92 95 96 96 96 96 91 86 78 73 68 66 60 52 47 45 42
53 60 65 68 67 65 73 73 72 73 76 75 78 77 85 86 85 85 94 85 73 73 73 74 78 82 87 93 95 96 97 91 87 83 77 72 67 64 58 51 46 44 41
50 50 50 50 50 55 61 65 70 72 75 73 79 84 85 85 86 87 83 79 75 79 80 84 84 88 91 93 95 92 92 97 88 82 77 73 65 62 59 50 44 41 39

GFSGL_250_spd_042.txt.gz
Wind_Speed
26 28 26 27 26 21 20 26 27 29 31 30 30 32 32 33 36 37 38 42 46 51 55 56 60 56 45 35 40 51 54 59 52 56 63 60 60 57 55 51 40 44 40
30 34 33 31 30 29 25 25 28 32 36 33 33 35 37 38 40 42 43 44 47 52 56 59 62 58 41 37 41 48 57 65 60 58 65 64 57 59 56 53 52 50 52
34 32 32 33 33 31 31 30 30 32 38 39 37 38 41 42 43 45 46 50 50 53 58 58 61 48 37 39 42 51 58 69 62 60 66 70 64 63 60 54 51 54 53
37 44 44 38 37 38 39 40 39 36 39 43 43 44 45 46 46 48 48 52 55 57 59 60 59 39 41 43 49 53 62 68 62 65 67 77 71 65 59 57 56 58 57
45 47 48 45 45 47 47 46 45 45 44 46 49 50 51 52 50 50 52 56 58 60 61 60 53 41 46 54 58 61 61 66 60 63 67 74 74 75 67 61 69 59 64
51 53 53 53 51 50 50 50 49 52 51 50 53 56 55 57 56 54 54 59 61 63 62 63 58 52 44 57 60 65 62 67 64 66 70 83 79 80 78 75 69 69 81
59 58 59 60 60 58 57 56 57 58 57 57 56 58 60 61 62 59 59 63 65 66 63 57 59 48 55 53 61 63 63 68 72 74 80 86 82 87 89 85 85 85 92
67 66 67 68 66 65 63 63 63 64 61 61 63 64 64 67 66 65 64 66 70 69 65 55 47 54 51 50 60 61 62 69 77 77 85 90 86 96 97 94 92 93 100
76 78 75 76 74 69 69 72 70 67 66 68 68 69 71 72 73 71 70 70 69 72 70 51 44 41 52 59 57 60 67 73 79 77 90 92 88 99 100 99 98 99 105
58 60 68 75 78 77 77 78 77 76 75 74 74 74 76 79 79 77 77 76 71 68 58 59 56 62 62 63 59 70 75 79 82 92 92 90 95 102 104 106 104 104 108
56 59 61 60 59 62 69 72 75 77 76 77 77 78 78 78 74 71 63 61 54 49 44 62 68 62 60 61 65 75 76 81 88 95 94 91 102 108 106 111 112 111 111
57 57 59 61 60 62 60 57 57 58 59 58 57 56 56 54 45 48 49 40 49 53 47 57 62 61 63 66 69 78 79 88 93 95 96 98 105 109 115 118 116 117 113
60 61 63 65 62 58 61 59 55 55 51 44 35 28 26 22 24 30 27 31 42 46 51 55 56 81 88 77 83 76 84 90 94 98 100 105 113 115 122 123 114 112 110
59 61 65 66 59 57 55 57 49 42 37 23 19 20 28 36 33 32 31 41 54 71 62 70 72 70 72 76 85 87 94 98 97 102 105 111 121 121 124 116 112 114 110
61 66 67 64 54 53 54 53 43 32 20 12 15 17 21 24 31 40 56 63 62 65 58 74 77 74 75 85 89 100 98 98 105 109 114 115 121 122 117 114 114 116 106
64 66 66 65 58 57 49 46 35 31 29 27 26 16 23 37 43 33 32 63 65 84 89 76 76 73 79 86 85 84 89 102 110 111 114 117 117 126 121 120 116 113 105
63 66 68 63 59 55 48 45 39 38 42 42 42 44 36 41 49 59 61 65 83 82 77 86 87 79 76 75 82 88 101 110 113 114 118 121 120 122 121 116 117 114 98
67 69 68 59 53 54 50 57 54 49 48 41 51 53 44 55 70 57 61 61 74 80 76 72 80 85 86 91 100 102 100 108 117 114 113 115 114 116 120 117 116 106 93
68 68 68 66 63 59 54 58 56 51 46 47 49 47 43 38 51 56 63 74 75 82 81 82 83 90 96 105 107 112 114 118 113 109 115 112 115 109 105 113 107 97 88
68 69 66 66 61 57 54 57 57 57 60 58 53 50 50 50 57 61 65 74 79 82 86 89 96 102 104 106 107 114 113 115 112 115 111 106 101 102 107 105 94 90 82
69 65 66 64 61 59 58 64 60 63 64 59 63 61 64 62 57 62 65 71 78 75 75 84 92 97 102 103 109 114 117 116 108 104 104 104 98 103 101 101 91 87 77
63 67 70 72 66 57 58 63 67 70 68 70 65 58 60 68 69 70 71 74 81 81 76 81 82 86 89 94 103 103 100 96 91 92 93 88 94 101 100 98 90 85 75
64 67 67 68 69 65 59 62 64 64 70 72 70 68 68 70 73 74 76 77 78 78 80 81 83 85 92 93 91 92 92 95 93 89 88 89 95 100 96 94 89 83 73
66 64 65 68 72 71 62 62 64 64 67 72 66 62 65 70 74 76 76 79 80 81 78 81 82 86 89 92 93 92 92 90 86 86 86 94 97 100 94 95 89 81 72
67 65 66 71 72 72 65 65 63 58 60 66 71 74 74 73 73 78 77 78 82 85 85 85 89 89 91 89 89 89 88 85 83 85 89 95 95 94 92 94 87 83 72
61 59 58 54 51 58 64 60 69 73 72 68 68 72 77 79 81 85 89 91 92 88 88 93 92 88 89 91 87 84 83 83 86 89 92 96 97 91 94 94 88 81 67

GFSGL_250_spd_045.txt.gz
Wind_Speed
23 22 21 20 19 21 23 23 25 25 23 22 24 26 29 31 33 36 35 38 40 42 43 48 48 49 50 47 36 41 37 34 41 49 48 54 59 62 65 72 75 65 56
27 26 25 26 23 27 25 26 26 27 29 30 29 30 31 33 36 39 40 41 43 45 47 50 51 51 52 46 41 42 41 45 49 51 54 57 59 63 65 76 79 73 61
34 34 32 32 33 25 25 28 30 30 31 33 34 36 37 39 40 40 42 43 46 48 51 53 54 52 53 48 45 42 40 45 50 49 55 59 61 64 68 80 81 77 69
35 35 36 34 32 35 38 34 33 37 39 40 41 41 43 45 47 46 45 45 48 52 55 57 56 55 52 50 50 39 41 50 53 53 55 59 62 66 70 78 84 78 80
35 36 39 37 37 39 44 42 43 43 44 45 45 46 50 51 53 53 52 51 53 55 58 60 60 59 52 50 49 41 43 54 49 56 54 58 67 63 75 79 82 80 83
44 44 45 46 45 45 47 49 49 49 50 51 52 54 55 57 59 59 57 55 57 59 62 62 62 61 53 52 41 44 45 56 54 61 62 64 70 73 76 80 85 92 87
52 52 53 54 53 52 53 55 58 58 57 59 59 59 60 62 64 64 64 62 64 65 66 65 68 61 53 42 39 37 55 56 56 62 64 66 72 75 78 84 90 93 101
57 57 58 58 58 59 59 61 63 62 63 66 66 67 67 69 70 71 70 68 68 71 68 66 60 41 36 27 22 46 60 54 51 56 60 64 70 83 82 89 96 106 114
49 52 54 54 55 56 59 64 67 68 70 73 73 74 74 75 76 74 70 67 63 59 53 34 30 34 30 26 37 53 55 57 59 58 62 71 78 80 90 96 104 111 118
43 45 46 48 50 50 54 56 57 57 57 54 52 54 60 59 60 58 44 27 30 31 23 27 29 30 30 32 46 52 57 56 63 67 69 76 80 79 99 104 103 116 121
39 40 40 43 46 47 48 47 46 46 47 45 51 52 53 53 44 32 9 20 28 42 39 30 45 38 35 42 48 50 59 64 66 72 68 73 80 92 96 105 112 115 119
42 42 44 46 47 49 50 49 50 44 37 36 65 69 49 41 32 19 14 25 41 60 64 60 55 52 59 62 55 54 59 65 68 72 72 79 86 91 99 107 115 125 126
47 47 49 50 51 49 52 52 52 47 38 43 60 58 49 40 20 7 7 5 11 21 42 68 71 68 62 65 56 55 56 68 78 66 78 82 84 93 102 110 121 130 131
53 52 52 54 55 56 56 56 55 52 47 47 47 56 48 31 30 18 10 11 20 19 47 31 75 68 82 69 62 63 67 79 67 67 77 82 89 93 107 115 123 125 130
57 59 58 58 60 60 59 61 61 55 54 54 51 50 46 42 42 33 27 22 25 6 22 39 58 74 68 70 75 72 73 73 79 79 82 89 90 103 110 120 124 124 129
60 61 64 65 63 61 62 63 63 58 60 54 52 46 48 49 43 36 42 49 52 49 37 56 58 68 69 68 75 72 78 79 83 87 90 92 98 105 114 117 121 122 116
67 68 67 71 70 64 66 61 60 57 57 59 52 49 54 53 52 47 58 56 54 56 48 38 56 61 64 69 68 72 76 78 82 91 91 97 99 109 110 112 109 109 110
72 74 73 70 71 68 71 67 64 61 61 59 56 54 61 60 60 61 64 58 56 46 50 48 50 54 61 65 71 75 76 83 88 88 90 92 101 101 97 105 107 109 108
77 76 74 77 74 73 68 66 71 69 63 58 57 58 60 71 67 60 60 57 55 60 53 51 55 63 65 70 77 80 79 77 78 83 90 89 90 94 96 102 104 101 97
75 76 78 76 79 74 72 77 76 74 69 60 53 54 57 65 63 55 59 60 58 49 50 61 63 58 58 62 65 68 68 72 73 77 82 90 91 93 98 101 99 96 95
77 78 79 77 75 78 86 81 68 67 67 56 50 56 58 58 57 64 64 60 56 55 55 58 60 59 60 65 66 74 77 79 85 86 89 89 91 93 97 94 91 91 92
79 75 83 82 79 86 80 75 66 66 57 53 49 51 56 60 61 64 67 59 60 64 65 61 62 66 69 71 75 80 84 82 83 86 88 90 91 91 92 92 90 88 88
75 76 77 79 78 79 71 69 66 62 62 60 58 55 56 58 61 66 65 66 63 64 67 69 71 71 72 74 80 80 82 85 84 87 88 93 91 90 86 86 88 86 85
75 77 78 82 81 78 68 65 65 62 64 64 61 57 55 56 59 59 60 62 60 60 62 67 72 74 75 78 82 84 86 89 87 85 89 89 89 84 84 84 87 84 85
76 78 84 79 75 71 67 67 65 65 67 69 67 56 55 59 61 57 58 60 65 69 70 76 75 73 76 80 83 80 78 80 82 84 83 80 81 79 80 81 83 85 83
83 80 79 77 72 70 68 66 63 64 68 67 62 54 54 61 65 64 63 65 64 64 63 63 66 66 71 74 71 78 77 72 72 76 73 74 74 79 82 83 83 84 87

GFSGL_250_spd_048.txt.gz
Wind_Speed
26 24 22 21 21 21 20 19 20 22 21 19 21 23 25 27 30 33 35 36 37 39 41 43 45 47 47 49 46 46 41 34 34 34 35 35 40 46 51 54 54 56 63
29 27 25 24 23 23 24 23 25 25 25 22 23 26 27 30 35 36 38 39 40 43 46 49 48 49 52 51 52 49 44 35 37 40 38 40 45 51 51 58 58 57 63
30 30 29 29 28 27 28 30 31 26 26 27 27 30 34 36 40 41 43 44 45 48 50 51 53 54 57 56 54 49 45 36 34 38 45 47 48 49 53 59 59 60 65
35 35 35 35 33 31 34 33 29 30 34 35 35 36 39 41 45 47 48 49 50 52 52 53 56 57 58 57 52 49 41 39 38 39 45 49 52 51 54 56 59 62 68
37 37 40 38 36 34 34 36 37 42 41 41 42 44 45 48 49 51 53 54 56 57 57 58 58 58 53 48 45 42 37 33 38 42 46 49 48 52 58 51 63 61 69
42 42 40 39 38 37 38 39 41 43 45 47 48 49 49 50 54 58 57 59 61 61 58 58 55 52 41 31 27 28 25 32 38 42 49 52 57 64 54 59 61 66 72
47 46 44 45 46 45 44 46 49 49 50 52 53 54 56 57 59 61 64 61 56 52 49 45 41 34 23 26 30 29 27 27 38 44 48 52 57 56 55 66 61 70 78
51 50 50 51 50 49 49 51 53 54 56 58 58 56 52 51 51 52 52 51 47 45 37 31 24 17 22 21 27 27 30 37 36 42 50 52 53 54 58 66 73 72 83
54 54 54 53 52 51 52 52 53 52 51 49 49 51 45 44 44 41 35 43 47 31 23 16 19 20 32 24 21 27 39 47 46 46 48 51 54 57 59 69 69 77 89
47 51 50 40 38 42 42 39 38 40 40 41 41 38 36 36 46 50 44 42 17 11 6 23 24 31 25 27 25 32 48 48 51 51 50 50 53 59 62 67 73 82 90
39 34 33 32 33 35 36 38 39 37 36 40 38 34 31 42 61 53 54 52 41 46 54 57 51 56 55 39 51 58 60 54 56 58 54 59 56 65 67 68 83 87 96
35 35 36 37 36 36 37 37 36 35 39 40 41 36 32 41 66 53 52 57 59 45 40 33 23 32 35 39 54 63 56 47 55 74 67 64 66 65 64 72 88 89 101
39 41 40 40 40 40 39 39 40 42 46 46 48 45 44 44 49 51 51 57 61 29 28 22 35 38 25 23 25 33 60 68 77 78 63 65 68 67 70 78 86 93 99
47 47 45 46 46 46 45 44 46 47 49 51 53 45 45 49 53 53 53 57 57 39 28 43 37 37 40 41 29 41 43 55 52 62 67 60 66 67 72 79 86 92 99
54 53 52 52 52 51 50 50 50 50 51 53 56 55 57 51 49 49 51 56 54 48 38 47 49 45 43 44 47 49 55 59 55 56 57 60 66 69 78 82 87 94 97
60 60 60 59 59 59 59 58 58 58 58 57 60 59 59 54 52 53 55 55 58 56 50 55 52 47 57 59 54 62 61 62 64 59 61 66 73 75 79 85 90 93 100
66 66 67 67 66 67 66 64 64 64 63 61 59 61 60 57 59 62 62 57 56 55 57 53 57 57 60 58 59 55 61 70 69 71 67 74 74 77 80 81 87 90 92
73 73 73 73 72 71 70 71 72 71 69 64 65 66 64 62 63 71 62 61 59 58 60 58 57 60 65 60 56 57 56 55 59 63 65 66 69 72 80 85 87 90 93
80 80 81 79 77 76 77 78 78 73 71 68 66 68 68 64 72 71 57 56 56 52 52 52 56 57 61 64 57 52 55 58 58 58 59 63 70 78 81 85 89 91 95
85 85 84 82 80 78 78 77 73 73 69 68 72 70 67 70 69 54 54 51 50 50 50 58 52 48 53 54 57 58 56 63 68 66 67 68 74 79 84 87 91 96 98
84 85 84 83 79 75 75 75 76 77 78 70 68 69 66 67 55 49 48 53 51 51 51 57 57 54 56 54 59 60 60 59 61 64 68 73 77 82 87 91 91 90 89
85 84 82 84 84 81 81 80 78 80 67 62 59 65 68 66 55 53 50 43 50 52 51 54 49 51 56 62 58 51 52 60 66 70 72 76 79 83 85 82 83 81 85
89 90 89 86 83 80 73 70 73 61 63 65 74 79 76 77 61 53 53 48 48 50 53 49 46 48 50 50 57 63 63 65 67 71 75 76 75 77 77 77 76 78 85
91 87 82 81 81 82 75 78 78 73 72 85 77 77 73 71 64 61 57 57 54 47 49 58 49 46 52 57 58 57 61 66 71 73 72 69 71 73 71 72 72 78 75
86 81 84 84 78 79 76 76 79 82 89 96 82 82 75 67 63 61 59 58 55 51 52 57 58 57 59 62 65 69 68 65 69 68 69 70 67 69 70 69 72 74 77
86 86 85 87 81 85 94 88 88 92 97 93 77 74 69 74 67 62 59 54 57 56 53 52 59 62 66 67 65 62 63 66 68 67 71 72 72 72 74 75 79 78 80

GFSGL_250_spd_051.txt.gz
Wind_Speed
32 28 25 22 21 20 19 19 18 19 17 17 20 21 21 20 23 27 29 33 35 36 39 41 43 43 42 43 43 43 39 31 25 18 22 24 28 29 32 33 35 37 42
32 31 29 27 26 23 22 22 23 21 22 24 26 24 25 24 27 30 33 36 38 42 44 45 47 47 47 46 48 47 44 34 26 26 25 27 30 32 35 38 37 35 42
35 32 31 30 26 24 24 25 26 25 27 29 27 23 28 33 35 37 40 42 44 47 48 52 52 54 53 51 46 44 42 32 25 24 28 28 31 32 37 41 43 36 42
34 34 34 31 27 26 28 29 29 30 30 29 28 31 37 40 41 43 45 47 48 52 55 58 57 55 49 45 41 41 37 25 21 25 29 31 33 34 38 43 50 47 49
36 36 37 34 33 33 32 33 33 34 32 31 34 37 38 41 45 47 49 52 52 53 48 45 44 44 40 38 38 36 30 25 18 25 35 37 36 37 37 46 48 54 50
37 39 38 38 37 35 34 35 36 36 35 37 40 42 44 46 49 52 53 54 49 40 37 40 39 34 31 31 34 32 29 26 27 29 40 40 39 35 48 52 52 55 56
40 39 38 38 37 38 39 40 40 40 41 43 43 45 49 52 53 52 50 44 38 33 33 34 39 30 24 34 37 31 36 34 33 39 39 44 42 46 52 53 59 60 60
43 44 43 42 43 42 41 44 45 45 46 47 46 46 45 45 46 45 40 30 32 34 40 41 36 29 29 35 25 30 30 32 37 42 49 48 45 45 52 57 60 61 62
47 47 46 46 46 46 47 48 49 49 45 40 39 38 39 42 42 36 31 30 29 35 45 40 40 30 32 25 42 40 31 32 35 50 53 52 45 54 59 60 62 65 65
50 50 47 48 50 52 51 50 47 39 34 33 33 35 37 36 34 34 42 36 39 44 56 51 37 36 39 49 33 25 23 37 33 40 56 50 48 64 75 63 62 62 65
54 53 52 53 55 51 45 40 37 34 34 36 34 34 34 36 34 37 42 44 40 46 51 52 46 57 48 53 28 30 34 42 44 49 56 54 65 75 61 58 57 60 63
57 55 54 52 47 40 36 36 36 37 37 36 36 37 39 41 38 38 41 45 48 50 49 53 49 54 50 49 37 35 40 39 39 55 72 56 60 42 45 53 56 58 67
40 41 41 40 40 39 39 39 38 37 36 39 39 42 44 45 46 45 47 49 48 48 46 51 57 59 55 47 45 41 44 43 47 54 54 64 65 52 46 52 54 61 60
43 45 44 44 44 44 43 42 42 43 44 44 47 48 48 51 52 53 57 53 51 45 43 45 52 58 58 58 55 43 44 45 47 55 59 57 51 54 59 62 57 59 56
46 45 45 45 46 48 47 49 50 49 49 47 49 51 53 57 58 60 62 59 58 57 53 56 53 56 58 56 49 48 47 50 46 47 51 47 52 53 58 55 59 54 56
50 49 49 49 50 52 53 55 56 53 54 54 54 57 57 60 64 66 66 65 64 65 60 63 64 61 58 56 50 48 46 48 50 47 47 45 49 50 54 57 57 60 62
55 56 57 58 59 60 59 59 59 60 59 60 61 62 64 66 67 70 67 67 68 67 67 66 65 61 57 53 51 50 51 49 51 47 48 46 40 46 52 55 53 57 66
62 63 64 65 65 65 65 65 66 67 66 67 69 69 69 70 68 69 70 70 72 67 63 70 65 60 54 55 55 47 48 51 52 50 45 49 49 51 53 52 57 66 69
70 70 71 71 72 71 71 71 71 71 70 70 71 72 70 71 70 66 70 68 54 52 58 58 52 52 50 48 48 46 48 43 44 48 49 48 53 57 55 59 62 66 71
77 77 77 76 75 75 75 77 77 76 76 75 73 72 73 69 65 67 71 57 56 61 60 54 48 51 46 44 46 43 41 44 41 45 47 51 52 51 56 61 65 68 73
81 81 82 81 81 80 80 79 81 80 77 75 75 72 71 71 72 68 64 57 59 62 66 60 54 48 45 47 44 43 43 46 48 48 50 48 53 56 64 67 66 72 77
86 86 87 85 84 85 85 82 79 76 75 74 73 74 73 73 65 66 69 71 70 72 76 66 58 54 50 48 44 39 39 40 49 46 49 56 61 66 69 68 70 73 70
89 87 85 84 83 84 82 82 80 81 81 84 81 76 74 68 70 66 65 70 75 81 73 63 60 56 54 51 45 39 43 49 54 54 60 64 62 61 64 67 70 67 65
91 88 85 84 87 89 89 91 93 91 87 85 85 77 76 75 71 72 81 73 71 65 55 58 58 58 52 48 50 52 58 59 63 67 67 63 66 69 74 75 65 66 68
98 94 92 89 94 96 97 95 96 94 92 85 81 83 85 80 80 85 76 74 69 60 58 57 60 57 58 52 49 49 53 60 66 61 64 67 72 77 73 66 67 68 69
100 102 100 98 101 101 100 97 89 86 83 81 86 85 80 84 83 78 82 76 64 71 69 69 63 63 58 59 55 55 55 55 55 59 66 69 70 65 64 65 67 68 72

GFSGL_250_spd_054.txt.gz
Wind_Speed
36 31 29 26 24 21 19 18 17 16 15 14 17 18 20 21 22 22 26 29 34 37 39 40 45 48 49 45 39 37 37 35 32 28 21 19 19 21 22 22 24 25 29
36 35 33 28 24 22 20 19 19 17 17 18 21 24 30 25 20 23 32 36 38 41 42 44 48 52 43 38 36 33 29 27 23 22 23 22 23 19 23 24 24 25 32
37 36 33 29 27 24 22 22 21 20 20 20 22 25 28 23 22 31 37 37 41 42 47 48 44 38 34 32 30 25 20 21 17 19 16 22 26 26 26 32 31 30 37
39 38 36 32 29 27 26 23 23 25 25 26 26 26 26 29 32 35 38 41 45 48 51 48 31 29 34 27 23 24 23 21 16 18 23 28 30 29 31 34 36 37 42
39 37 35 34 33 32 30 30 29 27 28 29 28 28 28 32 35 39 41 46 48 49 42 34 28 29 30 32 23 22 22 26 26 25 29 30 35 31 37 35 33 42 45
40 40 38 37 36 35 34 32 32 31 29 31 32 34 36 38 41 43 44 46 46 44 40 29 30 29 31 34 31 23 22 24 28 33 33 29 30 34 37 46 51 43 49
41 41 38 37 37 35 34 34 33 31 33 35 37 40 41 42 44 45 41 40 40 39 30 36 36 32 36 40 40 38 29 28 41 30 30 25 33 38 39 39 47 44 50
41 38 37 37 36 35 34 34 35 36 39 40 42 43 44 44 44 39 39 36 32 30 34 39 40 43 48 44 44 39 36 37 26 23 32 35 43 46 44 42 43 46 62
42 42 42 41 38 36 37 38 39 41 41 43 44 46 46 42 38 37 36 30 31 36 38 34 40 46 48 53 44 45 44 38 39 33 35 36 73 66 57 47 50 56 62
47 46 43 42 41 42 43 43 45 44 44 45 46 45 42 37 37 33 33 28 30 32 36 39 44 46 44 46 46 44 53 46 46 40 41 45 63 62 58 51 55 58 57
50 47 46 45 47 48 48 47 46 46 46 45 42 43 38 37 35 34 35 35 34 37 41 42 46 44 44 45 42 45 56 57 44 36 40 43 51 51 54 55 60 61 59
51 51 50 51 52 51 50 49 49 48 49 44 40 38 37 36 36 38 40 40 41 42 44 48 46 47 50 50 49 47 46 51 47 40 37 44 51 54 59 58 52 54 55
53 53 53 53 50 45 42 42 45 46 42 41 40 39 38 37 40 42 43 45 46 47 49 52 55 51 48 53 52 57 49 48 46 44 41 48 55 61 55 50 52 49 46
48 46 43 41 42 42 44 45 46 46 43 42 41 40 39 41 45 46 49 50 51 52 55 56 58 55 56 60 61 58 56 49 41 42 43 52 58 54 42 44 45 46 46
45 45 45 46 46 46 44 45 45 44 46 44 44 42 46 46 47 51 53 56 57 58 59 60 61 55 59 59 61 68 62 53 44 37 43 48 45 41 45 44 48 42 42
48 48 48 48 49 49 47 46 45 46 48 47 49 49 51 50 52 55 56 59 61 61 63 61 59 56 55 56 61 64 55 47 42 40 41 45 51 52 50 43 43 39 43
53 52 51 52 51 52 48 48 46 47 50 51 52 53 54 56 57 57 58 60 61 63 60 63 55 56 56 55 61 59 50 45 44 41 41 38 49 56 45 40 41 45 45
58 58 59 57 55 55 51 52 52 53 53 54 55 56 59 61 62 62 63 65 66 66 65 59 56 59 61 60 63 67 59 50 45 39 39 43 52 49 41 42 46 44 46
65 63 63 62 61 60 58 57 59 58 58 61 61 64 65 63 64 66 68 68 69 64 56 58 58 58 59 60 64 69 65 51 46 41 43 40 40 45 46 49 48 48 52
67 66 66 66 66 64 64 63 63 65 65 68 69 69 69 68 69 71 74 72 66 63 62 60 56 60 61 60 65 65 65 54 52 41 40 36 41 40 44 49 54 61 65
73 73 72 71 69 68 69 70 70 72 73 72 72 74 72 73 75 78 76 71 68 65 67 68 61 62 56 61 57 46 44 44 47 46 38 38 44 49 56 60 61 67 68
82 81 79 76 75 76 76 77 76 75 75 75 76 78 79 79 78 76 75 73 73 73 74 71 67 65 66 56 55 56 53 44 43 44 47 45 45 51 59 61 61 61 64
87 86 83 83 83 82 81 82 82 79 79 81 82 82 82 83 79 76 76 79 80 78 74 67 66 70 66 64 58 58 49 49 46 46 49 51 49 53 58 61 65 66 68
90 90 90 90 90 88 89 89 88 89 87 87 85 84 82 80 82 83 83 85 85 81 80 76 72 69 63 63 60 57 52 56 60 48 48 51 52 50 52 54 60 65 66
92 94 94 95 94 93 92 92 92 92 92 93 89 89 89 93 95 93 93 89 83 83 77 77 68 64 65 63 61 56 58 63 54 50 47 52 51 55 55 55 55 51 49
97 96 96 95 94 95 96 95 96 97 97 97 94 92 93 95 94 94 89 85 83 80 78 74 71 69 62 69 66 72 67 67 56 52 47 51 56 55 56 58 58 57 59

GFSGL_250_spd_057.txt.gz
Wind_Speed
38 33 30 29 28 23 20 18 16 14 15 14 13 13 16 19 22 24 18 19 27 33 36 38 42 44 46 38 33 28 26 16 10 8 14 13 14 14 18 20 22 27 33
39 36 35 33 28 23 20 17 15 14 13 14 13 15 18 20 22 21 19 28 33 36 37 41 44 45 36 28 27 20 13 14 11 7 9 12 14 13 18 15 21 30 35
42 40 38 32 27 24 22 19 18 16 15 15 17 19 22 24 24 25 27 31 34 40 43 45 45 38 34 29 25 25 19 16 11 11 14 17 19 25 27 29 30 26 31
44 41 37 33 30 29 26 25 23 20 19 19 21 21 23 23 23 24 29 35 39 43 46 44 41 38 30 27 27 28 30 24 17 20 21 23 28 20 23 26 28 34 35
44 41 37 34 33 32 32 29 27 24 24 24 25 26 26 25 26 29 34 37 43 45 43 41 37 36 35 31 32 26 30 32 26 19 26 31 22 22 21 28 32 38 43
45 43 40 37 36 37 35 33 31 29 29 28 30 31 28 27 29 33 35 41 42 42 38 37 32 35 38 36 38 39 43 41 33 29 31 29 31 20 26 33 49 61 56
47 44 42 41 40 37 35 36 34 33 33 32 34 32 29 29 32 35 39 41 39 35 31 29 33 36 32 36 37 39 39 40 36 31 34 36 33 36 35 41 54 60 58
47 46 42 42 41 38 39 38 37 36 35 36 33 32 31 32 33 35 37 35 32 27 28 29 29 30 32 35 37 40 40 36 35 38 31 33 31 34 41 47 55 58 59
48 47 44 42 41 39 39 36 35 37 36 35 35 34 35 35 35 36 34 29 28 27 26 28 32 36 37 39 40 38 38 41 42 40 34 36 29 33 40 45 49 49 64
49 47 44 41 40 40 38 37 38 39 38 37 37 39 40 38 38 39 31 28 27 31 33 33 37 40 43 45 46 45 44 44 46 43 43 40 36 33 29 37 50 61 65
52 45 42 42 42 41 41 40 40 39 38 40 42 42 42 40 39 36 33 31 30 34 37 37 40 42 45 49 49 48 45 48 44 43 44 37 40 29 36 40 46 56 64
44 42 43 43 43 41 41 40 41 41 43 44 44 43 41 39 38 36 34 33 34 38 40 43 45 48 51 52 51 52 45 41 36 48 50 40 36 27 27 34 38 59 67
51 49 50 49 48 47 46 46 44 45 43 41 42 41 40 40 38 37 36 37 39 40 43 46 48 50 52 54 53 49 48 46 48 46 41 33 29 22 26 32 37 67 78
54 54 54 52 52 50 49 48 48 46 43 43 43 42 41 40 40 39 40 42 42 44 45 49 50 52 53 56 57 50 49 51 53 46 49 43 29 22 17 28 48 65 67
61 60 59 57 56 54 52 51 49 46 44 45 45 43 43 44 45 45 44 44 47 45 47 50 53 54 56 60 55 51 51 46 55 54 46 37 18 20 40 56 53 59 65
59 62 62 62 61 57 54 50 48 48 47 48 47 44 45 46 47 46 44 47 49 48 50 52 53 55 60 56 49 47 53 50 56 61 47 36 24 34 35 53 67 60 57
46 46 47 47 46 45 48 49 49 50 50 49 48 48 49 46 46 46 48 49 49 51 53 55 57 60 61 54 51 54 59 53 56 55 54 46 40 36 46 58 65 68 63
47 47 49 50 50 49 53 55 54 51 52 54 52 50 48 48 50 50 52 52 55 54 55 59 60 60 59 54 53 56 57 52 57 61 61 55 50 49 41 41 46 53 61
57 56 54 53 53 53 55 55 51 51 54 56 54 53 54 55 54 54 55 57 58 59 59 61 62 62 61 56 59 61 62 61 60 63 62 56 51 50 41 37 42 49 52
62 62 63 62 59 57 55 57 59 59 59 55 55 57 57 57 58 60 61 62 63 64 64 64 65 66 63 62 64 64 67 62 60 54 55 48 47 43 40 35 40 46 48
66 66 66 63 63 64 61 62 63 63 61 61 62 62 62 63 65 66 66 68 68 68 68 68 67 67 66 67 68 72 69 64 62 57 50 44 41 41 39 46 46 52 51
73 72 69 67 67 67 66 63 64 65 67 69 70 70 70 72 72 71 71 72 72 73 71 73 69 68 70 75 78 78 70 65 65 57 45 48 49 49 44 44 45 47 58
78 77 75 72 72 72 73 74 73 72 73 74 75 76 75 74 75 75 76 77 78 74 75 77 78 80 79 78 79 77 72 65 64 54 47 48 55 52 52 49 49 45 45
84 84 82 83 83 80 79 79 79 79 79 81 80 80 80 80 81 81 81 81 81 81 82 84 84 83 81 76 74 71 66 68 64 57 51 51 58 58 60 51 47 48 50
88 88 87 87 88 87 87 87 87 86 87 88 90 88 88 87 86 86 85 86 86 86 86 85 83 86 84 76 68 71 73 76 70 59 54 54 56 61 63 54 58 50 49
94 95 93 92 93 91 90 90 91 91 92 93 93 92 91 90 89 90 89 91 91 89 89 87 82 79 73 71 78 81 78 74 58 60 56 61 59 60 64 59 66 51 53

GFSGL_250_spd_060.txt.gz
Wind_Speed
38 36 33 30 28 26 23 20 17 14 13 14 14 15 16 17 17 21 23 22 20 27 31 35 39 43 41 34 30 26 22 23 21 24 9 8 8 5 8 13 17 15 24
41 38 34 35 33 28 25 21 17 16 15 16 19 18 17 16 19 23 24 22 23 26 32 37 41 38 32 31 24 24 23 21 21 23 23 17 14 14 15 18 24 25 26
45 41 39 39 34 31 28 24 20 18 17 18 20 19 18 19 21 22 22 22 27 31 34 40 39 31 30 31 30 24 23 21 22 25 26 22 25 27 29 31 28 35 36
49 45 43 40 36 33 32 28 23 21 21 22 23 22 19 21 23 23 23 27 32 33 36 38 30 29 29 34 32 30 28 27 30 32 27 26 28 29 30 33 34 34 34
52 49 46 42 39 37 34 30 26 25 25 25 24 23 23 24 24 25 26 27 32 34 37 32 29 25 24 24 27 29 30 29 29 29 32 30 30 28 31 33 33 32 38
52 51 47 43 40 38 35 34 33 30 29 29 29 28 27 28 27 28 29 30 32 35 34 28 25 23 20 24 25 29 30 31 27 28 33 31 31 26 27 30 34 38 43
54 50 46 43 41 39 37 37 34 33 33 32 32 31 31 29 29 30 30 32 32 35 31 26 23 22 24 27 29 31 34 33 36 33 36 34 32 31 31 30 31 36 36
54 52 47 45 45 42 41 39 36 35 35 35 35 34 33 31 31 32 32 34 34 34 28 23 25 28 29 34 36 36 40 41 44 40 39 36 37 38 31 26 29 36 36
51 50 50 47 46 44 42 41 39 38 39 38 37 35 32 32 33 32 35 36 36 33 29 29 33 32 33 35 38 41 43 43 45 42 40 36 39 36 34 27 33 27 32
51 51 48 48 48 46 44 42 39 39 39 39 37 35 35 34 33 34 36 36 35 32 30 33 34 35 36 39 41 43 45 45 46 45 43 46 40 35 31 27 21 21 33
54 53 50 49 48 45 43 42 40 39 39 39 37 37 37 34 35 37 39 37 34 34 34 35 35 36 37 39 40 41 43 48 44 41 42 45 37 36 26 19 15 24 30
51 51 50 47 43 40 40 42 41 41 41 41 38 39 38 38 40 42 42 38 36 35 36 37 37 38 37 40 42 41 46 47 41 36 40 40 46 40 35 19 13 16 31
51 50 48 45 43 45 45 45 44 44 41 39 40 41 43 43 45 46 43 41 37 36 37 39 39 41 39 42 43 44 48 45 42 36 43 42 42 39 29 14 10 27 41
56 54 50 48 48 48 46 44 44 45 44 45 46 46 47 46 49 48 46 43 39 37 39 41 42 42 42 45 45 47 48 47 43 41 39 41 42 41 32 26 26 30 53
59 56 55 55 53 51 50 51 51 50 49 49 49 50 50 50 51 49 48 44 39 39 41 42 43 43 44 47 47 47 48 48 44 43 43 46 47 47 44 33 39 47 52
65 62 60 58 55 55 55 54 53 52 52 53 53 53 52 54 53 53 49 45 42 42 43 43 45 44 47 49 50 50 50 51 47 48 48 49 56 58 57 54 47 49 56
67 63 63 62 59 58 56 56 56 55 56 56 55 55 55 53 53 51 49 47 47 47 45 46 48 49 51 53 51 52 53 52 52 51 54 57 61 62 57 61 57 52 47
43 50 54 57 59 60 61 59 55 52 52 53 53 53 52 50 50 50 48 49 50 50 50 51 52 53 54 56 56 58 59 56 54 55 58 64 69 59 59 56 59 56 48
45 44 42 41 43 47 49 50 51 50 51 53 52 52 53 52 52 52 53 55 55 56 56 55 55 57 59 60 61 62 64 61 60 61 63 67 67 59 59 57 48 46 49
54 51 49 48 46 45 47 48 48 51 53 54 55 57 56 55 55 56 56 56 57 57 57 57 59 62 63 64 65 66 64 65 64 64 66 67 64 59 53 53 46 45 46
64 58 60 58 55 53 53 54 55 55 56 57 57 57 57 58 60 61 61 61 59 59 60 63 66 67 67 67 68 65 66 66 68 70 69 69 63 50 59 54 53 50 47
66 65 62 63 66 64 61 60 60 61 61 61 62 63 64 63 62 63 65 66 66 67 69 70 70 71 71 71 69 69 70 69 71 70 70 63 56 59 59 57 56 53 56
74 70 69 68 67 66 67 66 65 65 66 67 69 69 68 68 66 67 68 69 70 72 72 72 72 74 74 75 74 73 75 75 77 73 66 59 58 63 64 61 60 51 51
78 77 77 75 74 72 73 73 72 73 73 72 70 71 71 72 73 75 75 74 75 76 76 78 78 79 80 79 80 81 81 82 78 67 62 60 64 69 76 72 61 58 58
84 84 82 83 82 80 77 79 78 77 77 77 78 78 78 80 80 81 82 83 83 83 84 84 85 84 85 86 85 86 85 75 71 62 64 61 66 71 78 66 60 59 58
88 89 90 90 89 89 89 87 86 85 85 86 86 87 89 89 89 90 88 87 89 91 91 88 88 89 88 89 87 83 82 70 66 67 65 67 71 86 66 53 55 50 58

GFSGL_250_spd_063.txt.gz
Wind_Speed
38 37 35 34 31 27 26 23 20 18 17 16 16 17 17 18 18 18 20 20 19 20 25 29 35 34 30 27 29 28 20 24 24 19 22 21 19 12 12 14 16 20 21
39 39 37 35 33 32 29 27 23 21 20 20 20 19 20 20 18 17 17 19 20 21 25 29 33 30 26 28 29 30 26 25 25 27 28 27 26 24 22 22 22 19 25
42 43 40 37 36 33 31 28 27 25 23 22 21 20 19 20 21 18 16 20 23 24 26 30 31 25 23 24 25 30 31 30 29 27 30 25 23 26 28 28 29 28 29
44 44 43 41 38 35 32 30 30 27 25 22 21 20 20 23 21 19 20 22 25 25 27 30 29 25 20 20 22 24 25 29 31 32 37 35 32 27 26 26 28 31 36
47 47 47 43 41 38 36 34 32 30 28 25 23 22 23 24 23 23 24 25 26 26 28 31 25 22 21 22 24 26 29 32 35 33 37 35 30 30 30 32 28 28 37
47 48 47 47 44 41 39 37 34 33 31 28 26 26 27 27 26 26 27 28 27 26 28 30 23 20 22 24 25 27 26 30 31 37 38 38 35 27 30 31 35 34 33
48 47 49 51 48 44 42 40 37 35 34 33 33 30 31 30 29 29 29 29 28 26 29 30 25 21 23 27 26 29 28 29 28 32 39 36 34 32 32 29 24 29 31
50 49 51 51 51 47 46 42 39 38 36 35 35 34 33 30 30 32 31 30 29 28 31 32 28 22 25 29 29 30 29 32 36 39 34 33 28 32 31 31 22 32 32
48 49 54 54 51 49 48 44 41 40 38 37 37 37 36 34 34 34 32 31 30 30 33 35 30 26 28 29 31 32 31 31 40 44 40 30 29 33 34 40 33 40 24
44 49 52 54 51 50 47 44 41 42 41 41 40 39 38 36 36 34 34 33 31 33 35 36 33 31 31 31 32 34 33 32 37 43 41 37 39 42 36 40 36 38 31
43 46 48 52 52 51 48 45 42 42 43 45 44 41 37 35 36 36 35 35 34 36 37 36 35 34 33 33 34 36 36 35 38 40 43 40 40 42 38 43 45 46 38
46 45 47 53 57 54 51 50 48 47 47 47 47 43 40 38 38 38 36 36 37 40 41 40 39 38 35 35 36 36 36 36 37 40 42 40 39 41 43 44 48 52 46
48 47 45 49 52 50 47 44 42 46 49 49 49 45 42 42 42 39 38 39 41 42 44 43 42 39 37 37 38 36 36 38 40 40 43 44 40 41 45 47 48 49 48
54 50 49 48 49 50 49 49 50 51 51 48 47 46 45 44 43 42 43 44 44 45 46 46 46 42 40 39 39 39 40 42 43 43 44 47 48 47 48 50 52 48 55
60 58 54 48 46 45 47 49 50 49 49 49 47 45 45 46 47 47 48 47 47 46 47 48 47 42 41 41 42 42 44 45 47 47 49 51 53 53 53 53 52 53 52
63 61 59 57 54 52 52 50 49 49 49 50 48 48 49 51 51 49 48 50 49 48 48 47 46 43 43 44 45 45 47 50 51 53 53 55 55 54 52 56 54 56 59
66 65 62 61 59 58 57 56 56 56 55 54 54 53 54 53 50 52 52 52 52 52 49 47 46 44 45 46 46 48 52 55 54 57 57 58 58 57 59 60 59 58 55
58 65 69 66 63 62 60 59 59 58 58 57 56 55 55 55 55 55 54 54 55 52 48 49 47 47 47 49 50 53 56 55 56 60 61 61 60 59 59 62 64 57 53
52 54 54 57 64 66 65 63 61 60 59 59 58 57 57 57 57 56 57 56 55 51 50 50 50 50 50 52 53 55 56 57 60 63 64 62 64 64 63 67 65 57 54
53 52 53 52 49 50 54 57 59 58 55 55 56 56 57 57 56 55 55 54 54 54 55 56 56 56 54 54 56 58 60 63 65 66 65 66 67 69 71 70 65 57 54
55 52 49 48 48 46 45 46 48 49 49 50 51 53 53 53 53 54 57 59 60 60 58 57 57 56 57 59 61 62 64 66 69 68 67 68 69 70 71 73 67 57 53
60 59 56 55 53 52 49 51 50 50 49 50 51 53 56 58 59 60 60 61 60 59 59 60 61 62 62 63 64 65 67 69 71 72 72 71 71 71 70 75 66 59 53
68 67 64 63 64 62 60 60 60 61 61 60 60 61 61 62 62 63 63 63 64 64 64 66 67 68 70 70 70 72 75 75 74 74 76 74 77 76 78 78 66 55 60
77 75 72 70 69 70 69 69 70 68 66 65 67 69 69 70 71 70 68 67 69 69 71 72 73 74 75 75 78 80 78 75 78 79 78 79 80 84 79 74 62 57 62
85 83 80 77 76 76 74 74 74 73 71 73 72 72 72 73 73 73 73 73 74 75 77 79 82 84 85 84 84 85 84 82 82 84 81 83 84 75 68 64 63 60 64
93 91 89 86 83 81 81 80 81 80 80 80 77 79 79 77 79 78 79 80 82 83 84 85 87 88 88 89 90 91 92 90 89 85 86 87 71 70 66 68 63 63 70

GFSGL_250_spd_066.txt.gz
Wind_Speed
31 31 31 30 28 31 27 26 23 21 20 19 17 15 14 15 16 16 15 13 16 21 23 25 29 30 25 21 24 27 29 32 33 27 25 27 24 23 23 19 19 20 21
35 33 33 32 32 32 32 28 26 24 24 20 19 18 17 16 15 15 15 13 16 20 23 24 28 30 26 21 24 28 31 31 30 30 30 32 27 22 22 21 22 24 25
36 36 34 36 36 34 34 31 29 28 27 24 22 22 20 16 14 15 15 15 17 21 23 24 27 29 25 22 24 27 29 31 33 33 31 30 28 26 28 25 26 29 25
38 38 39 39 38 36 35 34 33 33 30 26 26 24 19 15 15 15 16 17 17 20 22 23 26 28 24 20 21 22 25 28 29 31 34 34 28 22 21 22 31 33 31
39 41 43 41 39 39 38 37 37 35 32 31 28 24 21 19 19 19 20 19 19 20 20 22 24 28 25 19 19 21 24 27 27 28 34 36 32 24 25 30 28 30 32
39 43 41 41 41 43 40 39 39 37 35 34 30 27 24 21 20 22 23 22 20 21 20 21 24 26 26 19 20 22 24 26 27 30 31 34 31 23 24 25 28 25 32
36 40 42 42 44 46 44 43 42 40 39 36 33 31 29 27 26 25 25 24 22 23 21 21 24 26 26 22 22 24 25 25 27 28 31 34 33 25 27 31 25 28 29
36 39 44 45 47 47 47 47 44 42 41 39 37 34 33 31 30 27 28 26 25 25 23 23 26 26 27 23 24 24 26 26 25 27 29 32 33 34 30 31 28 31 37
41 39 45 50 48 48 50 49 46 44 43 42 41 38 37 34 32 30 30 30 28 26 26 26 28 27 29 29 29 28 27 29 31 29 31 30 33 36 39 39 37 38 42
46 44 42 46 49 50 49 48 46 46 45 45 45 43 41 39 36 33 32 31 30 29 30 29 30 30 30 31 32 31 31 31 33 31 33 35 35 34 36 42 44 47 49
50 47 43 42 45 48 47 48 49 49 50 49 48 47 46 42 39 36 34 33 30 31 33 32 32 34 33 35 35 33 33 33 34 34 34 36 39 41 42 44 47 48 49
50 48 46 44 44 46 49 48 51 52 53 50 48 48 48 44 40 39 38 36 33 35 35 35 36 36 35 36 36 35 35 35 37 37 36 38 40 43 46 49 52 53 49
49 39 49 47 45 45 48 50 53 57 55 53 50 49 48 46 42 40 42 39 37 38 37 38 39 38 37 38 39 38 36 37 39 39 38 39 42 45 47 49 53 54 52
53 53 50 49 48 46 45 48 53 56 56 53 51 52 53 48 44 42 42 41 39 40 39 40 42 41 41 41 41 41 39 38 39 41 40 40 45 47 49 51 54 55 56
52 56 56 55 54 49 46 44 46 49 53 55 57 56 51 48 46 43 42 43 42 41 41 43 44 44 43 43 44 42 42 41 41 42 42 43 48 50 51 53 55 56 55
53 57 60 59 56 53 47 45 47 52 57 59 57 54 52 51 47 45 45 44 44 44 45 46 46 47 46 47 47 43 41 41 42 44 44 47 51 51 54 57 59 57 56
53 55 59 61 60 57 54 51 49 51 54 54 53 51 51 50 48 48 47 47 48 48 49 49 48 49 49 50 47 43 43 43 44 45 46 48 51 54 57 59 62 62 61
53 53 55 58 62 60 57 58 57 58 57 55 53 53 52 52 51 51 52 54 54 51 50 50 51 52 52 50 46 46 46 46 47 48 49 51 54 56 59 61 60 62 62
54 53 53 54 58 62 64 64 62 61 60 60 59 58 58 58 58 56 56 55 53 52 51 52 53 53 52 50 48 48 49 49 48 49 52 55 57 58 60 63 63 63 62
56 55 54 53 52 55 59 63 66 67 65 64 63 63 62 62 62 60 59 57 55 54 55 55 55 55 52 50 52 52 50 50 52 54 55 57 60 64 65 66 65 65 65
59 58 56 54 53 51 51 53 55 59 63 64 64 64 62 62 63 64 63 60 58 57 59 58 55 52 51 53 54 53 54 55 57 59 61 63 66 67 70 71 72 67 68
65 62 59 58 56 54 52 52 53 54 53 54 55 56 57 57 57 56 56 56 57 56 55 53 53 55 56 57 57 59 61 61 62 63 65 68 71 73 74 76 73 74 69
74 70 66 64 63 61 61 59 55 54 53 52 51 50 49 49 50 51 53 54 54 55 57 59 60 59 61 63 63 64 65 66 67 68 69 73 77 77 78 79 75 67 65
77 73 70 67 67 66 64 63 62 60 59 58 58 58 57 57 58 58 60 61 62 63 64 64 66 66 66 66 68 69 70 69 70 73 75 78 80 79 78 75 76 73 72
84 81 78 75 75 72 70 70 69 68 68 67 66 66 65 65 67 68 68 67 66 67 69 69 68 69 70 70 71 73 76 78 80 81 83 85 80 76 77 80 77 74 73
91 86 84 83 81 80 78 78 78 76 75 76 74 73 75 76 75 76 74 74 74 75 75 75 76 76 77 78 79 81 82 84 87 84 84 82 81 84 87 84 77 74 77

GFSGL_250_spd_069.txt.gz
Wind_Speed
26 28 27 27 27 29 27 26 23 18 16 17 17 15 13 12 12 13 12 11 12 15 18 20 22 25 19 19 19 22 25 27 27 25 23 23 20 21 20 17 17 17 19
28 32 31 32 31 30 29 26 23 21 19 19 19 17 17 13 13 11 10 11 13 15 16 18 20 22 23 19 17 18 20 23 25 26 31 31 23 19 20 20 22 24 14
30 34 34 33 36 33 30 28 25 25 23 22 21 20 18 16 14 12 11 11 14 16 16 15 18 21 24 21 21 20 21 23 27 25 29 31 27 19 20 23 21 26 22
28 34 35 36 38 36 33 31 28 28 28 27 25 23 22 20 17 14 15 13 15 16 17 15 16 19 22 23 21 19 21 23 26 26 28 29 26 21 21 28 29 24 22
32 33 38 38 40 38 37 35 32 32 31 30 28 26 26 25 20 19 17 14 18 18 18 17 16 18 20 22 23 20 20 21 22 24 25 28 28 26 24 23 24 25 27
36 36 36 39 40 42 41 37 36 34 33 32 32 30 29 27 24 22 20 18 20 20 20 19 17 19 20 22 23 24 21 22 23 24 25 28 29 27 25 25 27 26 31
37 37 35 38 41 44 44 39 37 36 34 33 34 34 32 31 28 26 27 23 22 22 22 21 21 20 22 22 23 24 23 22 25 26 25 25 27 28 25 27 28 30 34
36 39 38 35 39 42 45 44 40 37 37 34 36 37 36 36 33 30 30 28 25 25 25 24 22 22 23 24 23 24 25 24 25 27 28 26 25 25 27 27 31 35 38
38 39 41 39 36 41 45 45 44 40 38 38 37 41 40 40 38 35 33 30 29 28 28 26 24 25 26 27 26 25 26 28 27 27 26 27 25 28 28 31 35 37 40
41 40 39 39 38 38 43 42 39 42 42 41 42 45 44 43 43 40 37 35 33 31 30 28 26 26 28 29 28 28 29 29 30 30 31 29 29 29 31 32 35 39 41
42 40 40 39 40 39 36 40 43 44 45 47 48 48 47 45 44 43 41 40 37 34 33 31 29 29 30 31 31 30 31 32 33 33 33 34 33 33 33 35 37 39 43
42 41 38 37 40 41 39 39 43 47 50 51 52 53 52 49 47 45 44 44 41 37 36 34 33 33 33 32 33 33 33 34 36 37 35 35 34 36 37 38 40 43 44
44 41 39 40 40 42 43 40 41 43 49 50 53 55 55 53 51 48 46 45 44 41 39 38 38 37 36 36 36 37 36 37 38 39 38 38 36 36 38 40 42 44 46
46 43 41 42 42 42 46 44 42 43 45 47 50 53 56 54 52 49 48 45 44 45 42 41 42 40 40 39 40 40 39 39 40 40 40 38 37 38 39 40 41 46 47
48 46 43 46 47 46 44 47 47 46 43 42 45 48 52 55 52 53 52 48 47 47 47 45 43 43 43 41 43 43 42 42 41 41 39 39 38 40 41 41 43 45 48
50 47 47 48 39 43 52 53 51 48 46 44 45 46 47 51 55 56 51 47 46 49 50 48 46 45 44 43 46 46 44 44 44 43 40 41 40 42 44 43 45 47 47
51 48 51 58 58 55 52 54 53 51 49 48 48 48 49 52 53 50 49 49 50 50 50 49 47 46 46 46 48 47 46 46 47 45 44 41 41 43 45 46 50 49 50
55 59 53 57 54 53 53 55 57 56 55 53 51 48 48 49 49 49 48 50 50 48 48 48 48 48 50 51 49 49 48 49 49 47 44 43 42 43 47 50 51 52 56
63 64 65 64 60 56 56 57 58 59 58 56 55 54 53 52 51 48 47 48 49 50 52 54 54 55 55 54 52 51 52 51 49 49 45 45 46 46 50 52 54 55 59
63 61 59 58 57 58 58 57 56 58 61 61 60 59 57 57 58 57 55 55 56 56 56 56 58 57 58 58 57 55 53 53 52 47 48 49 50 52 55 56 59 60 61
68 66 65 63 62 60 59 58 57 58 58 59 62 63 62 62 62 61 60 60 60 60 60 59 61 61 60 59 56 55 55 52 49 48 51 54 56 57 58 61 64 65 66
71 69 66 64 62 61 61 60 59 58 58 59 60 60 62 64 65 65 66 66 65 64 64 64 61 58 57 56 55 53 51 49 51 53 57 58 60 62 64 65 67 69 71
74 72 70 68 66 65 63 64 63 62 61 59 59 59 59 58 59 61 62 63 64 63 60 55 53 52 52 51 51 52 53 55 58 60 61 62 64 66 67 68 71 73 76
80 77 76 74 72 71 70 69 68 67 66 64 63 61 59 58 57 57 57 56 54 54 53 51 50 51 52 54 57 60 61 63 63 64 65 67 68 71 73 74 74 76 78
87 85 83 81 79 78 76 75 74 71 70 69 67 65 63 62 60 60 59 58 57 58 59 58 59 59 60 62 64 66 67 69 70 72 72 73 75 77 79 79 79 78 74
93 92 91 88 86 85 83 79 78 77 75 73 72 71 70 69 67 67 65 64 65 66 66 66 66 67 69 71 73 74 75 76 77 77 78 80 80 77 79 80 78 76 74

GFSGL_250_spd_072.txt.gz
Wind_Speed
19 19 25 28 28 27 27 24 22 21 17 16 14 11 9 6 5 10 11 12 13 16 18 17 18 21 23 23 22 20 21 22 22 24 26 29 18 14 17 16 19 10 14
24 24 25 28 29 30 29 27 24 22 20 17 15 13 12 8 6 8 10 10 12 15 16 16 17 18 21 23 21 21 20 22 23 23 27 28 25 20 18 22 21 12 14
25 27 28 29 32 33 31 29 27 25 24 20 17 16 14 11 9 9 12 10 12 15 15 16 15 16 17 20 22 21 19 17 20 22 22 23 23 21 21 20 22 18 21
26 27 30 30 34 33 32 31 29 28 27 24 21 19 17 15 13 11 14 13 13 15 16 15 15 15 17 18 19 19 21 18 17 19 23 23 22 24 24 24 22 22 25
25 28 33 33 33 33 31 34 33 32 29 26 25 22 21 19 18 15 16 15 16 17 18 17 16 15 17 17 18 20 21 22 21 20 21 26 25 24 23 22 25 25 26
33 31 33 32 33 33 36 35 37 37 35 31 28 26 25 25 23 22 19 18 19 20 20 20 19 18 17 18 18 19 21 22 22 23 23 23 25 23 22 21 23 26 29
37 36 32 32 32 35 36 38 40 40 37 36 31 29 27 28 28 26 24 23 22 23 23 23 22 22 20 19 19 20 21 23 23 23 24 25 23 27 27 27 28 28 30
40 37 36 34 36 35 36 39 42 41 41 39 36 33 31 29 30 30 29 27 26 27 26 26 25 26 24 22 22 22 21 24 25 26 27 27 28 27 31 31 29 31 34
43 40 40 37 36 39 36 40 43 41 44 44 39 36 35 32 32 33 33 32 32 31 30 30 29 28 27 26 24 24 24 25 25 26 28 29 31 32 32 36 35 33 35
47 45 40 37 36 39 41 39 39 42 42 44 44 41 38 36 36 35 35 35 36 36 35 34 33 31 31 30 29 27 27 28 27 28 30 30 32 34 34 34 34 34 33
49 46 40 39 38 36 38 40 37 40 42 44 47 46 43 39 39 38 39 40 39 39 40 38 36 35 34 34 34 33 30 31 32 32 33 33 34 35 36 35 33 33 34
50 47 44 41 39 38 37 38 41 40 44 46 47 47 47 46 43 43 43 44 44 43 42 40 39 39 37 37 37 37 36 35 36 36 36 35 35 37 38 37 34 34 34
53 50 47 44 42 40 39 39 39 43 42 44 49 49 48 47 47 48 48 49 49 47 44 43 42 41 40 39 40 39 39 39 39 39 39 37 37 36 38 38 37 34 35
56 55 51 48 44 41 40 41 39 41 45 45 43 44 45 46 48 49 50 50 50 51 48 46 45 43 42 43 42 42 41 40 41 42 41 40 39 37 38 40 39 37 36
58 57 53 51 48 44 42 41 41 41 44 48 48 45 41 40 41 44 49 52 52 53 52 49 48 47 46 45 44 44 44 44 44 43 43 43 41 39 39 41 40 38 37
62 60 56 53 50 46 43 43 43 45 46 46 49 49 47 44 43 44 46 44 50 56 57 51 49 47 47 45 45 46 46 45 44 45 46 44 42 41 40 41 42 41 40
67 66 60 56 53 49 47 49 46 49 46 49 48 50 49 48 47 44 46 47 50 54 57 54 49 50 50 48 46 48 48 46 45 48 49 45 43 43 43 44 45 44 43
71 66 65 61 56 52 50 52 53 53 56 57 55 53 52 52 51 49 46 45 46 48 50 45 47 48 51 48 45 44 46 48 49 50 48 47 46 46 46 46 46 46 47
72 70 67 67 60 55 56 52 37 36 58 49 49 49 51 53 53 52 51 49 48 47 45 45 46 47 46 46 47 49 50 51 52 50 50 51 50 49 48 47 48 48 50
70 71 67 64 61 58 61 65 53 60 66 65 59 54 56 56 56 55 55 54 52 52 50 49 48 49 51 51 53 52 53 54 55 55 54 54 54 51 49 49 50 51 54
71 76 77 72 70 70 72 74 72 70 65 64 59 57 59 58 60 59 58 57 56 57 56 56 55 54 55 55 55 56 56 57 57 56 53 53 51 49 49 50 52 57 58
78 76 77 78 79 79 78 78 79 77 77 75 68 66 63 62 61 59 59 60 61 62 63 62 62 61 60 61 61 61 60 60 57 56 54 51 48 49 51 55 58 59 59
83 85 83 81 82 81 81 81 81 83 82 79 75 73 71 67 63 60 59 59 60 62 63 65 65 65 64 64 64 62 60 57 54 51 49 50 51 55 58 60 61 63 67
96 93 89 85 85 84 85 85 84 85 85 85 84 80 75 69 65 64 62 60 60 59 59 60 59 58 59 60 59 57 53 52 50 50 53 55 58 61 63 65 67 69 72
97 94 91 88 86 87 86 85 87 87 87 84 82 77 74 71 69 67 65 64 64 64 63 61 60 58 59 57 57 56 55 55 56 57 60 62 64 67 69 71 73 73 74
98 95 93 91 89 87 87 87 86 86 84 83 82 80 78 77 73 72 71 69 68 68 67 65 64 62 62 62 61 61 60 61 63 66 67 70 71 72 75 75 76 77 80

GFSGL_250_spd_075.txt.gz
Wind_Speed
19 17 24 26 26 26 25 23 21 17 14 12 9 8 10 8 6 5 7 9 10 13 15 16 17 17 19 22 22 24 23 22 23 24 25 26 25 23 22 21 17 15 19
23 24 21 23 26 27 28 26 25 23 19 17 14 11 11 11 9 6 6 7 8 10 13 14 15 15 16 18 20 22 23 23 22 21 22 23 21 21 19 17 16 17 19
25 25 26 24 24 28 29 30 29 26 23 21 17 14 13 13 12 9 7 7 7 9 12 13 14 14 14 14 16 19 21 23 23 23 22 21 22 20 17 16 16 15 19
27 26 27 28 30 30 28 30 30 29 26 23 20 19 16 16 16 14 10 10 10 9 10 14 14 14 14 13 13 14 16 18 20 21 21 20 21 21 20 18 19 20 21
29 30 30 29 30 29 27 30 32 31 29 26 24 22 21 19 19 19 15 13 14 13 11 13 15 16 16 15 15 14 13 15 18 20 22 23 25 26 26 24 22 21 26
32 34 33 30 28 30 30 31 31 31 30 29 27 25 24 23 24 23 20 19 17 17 16 16 17 18 19 18 17 19 18 17 17 19 23 25 25 27 29 31 30 29 30
37 35 34 31 30 27 30 31 33 34 33 34 33 30 29 27 28 27 26 24 23 21 20 20 20 21 22 22 20 20 21 21 20 21 24 26 27 30 32 34 35 35 32
44 41 38 36 35 33 31 30 33 35 36 35 35 35 33 33 31 30 30 31 29 26 25 24 22 24 25 26 26 23 23 24 24 23 25 28 28 30 32 34 36 38 37
50 47 44 41 39 37 34 35 36 35 36 38 38 38 38 36 37 35 35 33 32 31 31 29 28 28 29 29 29 29 28 27 28 28 28 30 29 30 32 34 36 36 37
55 52 48 43 39 38 38 37 36 35 36 37 39 41 43 42 42 41 39 36 34 34 33 33 33 32 33 34 34 33 33 30 32 32 32 32 32 32 33 34 35 37 36
55 52 48 44 42 41 38 36 35 37 38 37 42 43 44 44 45 46 44 41 38 37 37 37 35 35 35 36 37 37 36 34 35 35 35 36 34 34 35 36 36 38 37
55 53 50 47 45 42 40 37 36 37 41 40 39 40 43 44 45 46 44 45 42 42 42 40 38 38 38 38 39 40 39 38 38 38 38 37 37 37 38 39 39 38 38
58 54 51 50 47 46 43 41 39 39 39 40 42 41 43 43 43 45 46 46 45 47 46 44 41 41 42 42 41 41 41 41 41 42 41 41 40 40 41 42 42 39 37
58 55 54 52 50 51 49 46 44 42 42 40 39 41 43 41 39 43 47 47 47 49 49 47 47 46 45 45 43 43 42 43 44 44 43 43 43 41 43 43 45 38 38
61 59 57 54 53 53 52 51 47 45 44 43 41 40 42 43 42 41 42 45 46 49 49 50 48 47 46 45 45 45 46 45 45 45 45 45 44 45 45 46 47 41 40
61 61 59 56 55 55 56 54 52 49 49 46 44 45 43 41 43 45 45 46 46 47 47 50 48 45 43 46 47 48 48 48 48 47 47 47 45 46 47 48 49 46 42
65 64 63 60 59 59 58 58 57 54 52 50 48 47 45 46 46 47 47 48 47 47 47 49 48 44 39 40 44 47 50 51 50 49 48 45 44 46 48 50 52 48 46
67 67 67 63 61 60 59 59 57 57 58 56 53 52 53 52 52 53 50 49 50 49 50 48 46 46 44 42 39 40 42 47 48 46 45 45 46 47 49 50 52 51 50
68 66 64 62 62 62 62 63 63 62 62 62 60 60 63 58 54 55 54 50 50 51 52 52 52 49 47 42 41 43 45 46 45 45 47 48 49 48 50 52 52 51 51
64 64 63 62 65 64 64 66 67 70 69 65 62 65 49 50 55 56 58 58 49 50 50 49 50 50 50 49 49 47 47 47 49 51 52 51 52 52 53 51 53 53 51
57 54 55 60 66 64 61 63 65 66 64 64 66 66 54 49 41 49 53 52 52 52 50 49 51 51 52 54 56 54 54 54 54 55 55 56 57 57 57 54 53 54 51
61 61 56 56 62 63 62 65 66 62 66 62 69 67 65 59 61 60 59 62 59 56 53 53 55 53 55 56 58 58 58 60 60 61 61 61 60 60 56 53 52 47 51
79 72 70 69 68 65 64 74 75 71 74 71 74 75 78 71 68 74 74 73 71 70 67 61 60 59 60 59 58 58 59 63 64 63 62 61 58 56 54 52 52 49 53
90 89 85 82 80 83 85 86 82 83 81 77 77 77 76 78 77 80 84 82 78 76 76 72 69 67 64 64 61 58 59 60 59 58 57 57 57 55 52 51 55 58 57
92 88 93 93 92 91 91 89 90 92 87 84 85 80 79 80 82 83 85 85 84 81 80 80 76 72 70 67 67 64 62 61 61 60 59 58 59 58 57 56 59 63 63
96 97 97 95 96 92 89 89 90 91 87 86 85 83 81 81 83 83 82 82 84 82 83 82 79 75 72 72 71 68 66 66 65 64 61 60 61 62 63 65 66 67 70

GFSGL_250_spd_078.txt.gz
Wind_Speed
20 25 27 29 29 27 25 25 20 15 11 9 6 6 6 5 5 4 5 7 9 12 13 13 13 14 16 17 18 21 23 25 26 25 24 21 21 22 22 21 20 19 18
20 22 22 24 24 27 29 28 25 22 18 14 11 9 9 10 9 7 5 4 5 8 10 11 12 12 13 14 15 17 19 21 23 25 26 26 24 22 21 19 18 14 17
21 23 25 24 26 29 29 28 28 26 22 19 15 14 13 12 13 12 10 6 4 6 7 9 10 11 12 12 13 15 16 17 19 21 22 23 25 25 23 22 23 22 23
26 24 25 30 30 29 27 28 28 26 24 22 19 19 17 15 14 16 15 13 9 8 9 9 10 11 12 14 15 15 16 17 18 20 21 23 24 25 26 28 28 29 29
33 30 29 28 28 27 29 28 29 28 26 25 23 23 21 19 17 18 19 18 17 14 13 13 13 13 13 13 15 16 16 17 18 18 19 21 23 25 27 28 29 30 34
34 34 32 28 27 27 25 26 28 28 26 24 24 23 24 23 21 19 20 22 23 21 19 17 17 16 15 15 15 17 17 17 18 20 21 23 24 25 28 30 32 34 35
39 37 34 32 30 30 29 28 29 30 28 27 27 27 28 26 26 24 23 24 26 27 25 24 22 20 19 19 19 18 20 20 21 22 24 25 26 28 30 31 33 34 35
44 42 39 36 34 32 31 32 34 33 33 32 32 32 31 31 31 30 29 28 27 29 30 30 29 27 25 24 24 22 22 23 24 24 25 27 29 30 31 33 34 36 37
50 48 45 41 37 35 34 35 34 32 31 33 33 32 34 32 33 35 34 33 32 30 31 34 34 33 31 30 29 28 27 26 28 28 29 29 31 32 33 34 35 37 38
55 53 48 45 42 40 39 37 34 32 33 33 33 34 36 36 36 38 38 37 36 35 35 35 36 37 37 35 33 32 31 30 30 31 31 31 33 34 34 34 35 37 38
59 55 52 50 47 44 41 39 37 35 33 33 36 36 37 37 37 39 40 40 38 38 40 40 39 39 39 39 38 37 35 33 33 33 34 35 34 37 38 38 36 38 38
62 58 56 54 53 49 45 42 41 38 37 35 34 35 38 38 36 37 39 40 38 40 43 43 43 43 43 42 43 41 39 37 36 36 36 37 38 38 39 39 39 39 40
65 63 60 58 56 54 51 47 45 42 40 39 36 36 35 36 36 35 35 37 38 40 41 43 43 44 46 45 45 45 43 42 41 39 38 38 39 40 40 41 41 40 41
70 68 65 62 58 54 52 51 49 47 45 43 42 40 37 35 36 35 35 36 37 37 40 41 43 45 45 44 46 47 47 46 43 41 41 41 41 41 41 44 44 42 42
73 72 69 65 61 57 55 52 50 49 47 47 46 43 41 37 38 38 38 37 38 39 38 39 42 44 45 45 45 46 46 46 47 46 46 45 43 44 44 45 45 42 42
76 71 69 66 63 60 58 54 51 52 50 49 49 46 45 44 42 41 42 43 41 41 42 43 43 43 44 44 41 40 38 40 42 44 47 50 50 49 49 45 44 40 40
78 74 71 70 67 62 59 57 55 53 53 52 50 48 50 48 46 47 46 47 47 45 45 44 45 45 44 44 44 45 44 40 39 41 43 44 47 49 47 46 41 42 42
80 77 73 68 66 62 60 59 58 56 55 56 56 53 52 53 52 53 51 50 49 50 50 50 49 48 46 43 43 45 48 48 43 44 42 43 47 46 46 44 44 46 47
81 79 74 70 68 67 64 62 61 61 62 61 60 56 56 55 55 54 55 54 52 54 56 59 53 48 44 43 46 44 44 46 45 47 46 45 45 44 45 48 48 49 49
82 77 75 70 70 70 68 66 64 58 63 64 63 59 59 58 56 56 57 58 59 60 58 56 56 53 49 39 44 43 41 41 46 45 47 50 52 53 52 52 51 52 54
85 77 74 72 72 66 62 67 65 66 68 63 60 60 59 58 57 59 62 60 62 64 60 54 54 57 48 41 43 44 46 45 47 51 52 51 52 54 52 53 55 55 55
85 78 75 70 63 64 64 63 59 60 62 63 62 60 59 59 61 61 61 61 67 61 55 50 52 56 51 49 49 52 53 58 60 60 62 56 53 52 53 52 53 53 53
87 78 71 73 73 54 65 62 65 63 63 64 66 58 55 55 56 55 62 59 59 64 59 58 54 53 57 63 68 67 67 67 68 66 64 60 60 58 57 57 54 52 52
91 86 83 75 70 71 71 74 64 60 59 60 61 65 62 59 64 68 71 71 79 72 75 71 66 67 70 69 68 70 71 73 73 70 69 66 64 62 60 60 59 55 55
93 91 87 84 72 73 73 63 66 64 68 64 64 67 63 71 73 69 74 74 72 72 72 74 75 77 78 76 75 74 78 76 74 74 72 69 67 66 64 63 63 62 60
99 97 94 90 87 83 80 76 84 74 70 71 69 68 83 75 80 81 82 80 77 76 78 78 78 76 75 75 76 80 79 76 73 73 71 69 67 68 69 67 67 64 65

GFSGL_250_spd_081.txt.gz
Wind_Speed
22 29 29 29 32 31 28 25 22 18 14 11 9 6 4 3 3 1 3 5 6 9 12 13 13 13 13 14 15 16 17 18 20 22 23 24 26 28 25 24 24 23 21
20 23 30 30 28 33 31 29 28 24 19 16 13 11 10 7 6 7 4 1 1 3 7 9 11 13 13 13 13 13 13 14 16 17 19 21 22 23 25 26 28 28 31
21 21 26 31 32 32 31 31 30 28 25 23 18 16 15 13 11 10 9 7 6 4 3 6 9 10 11 12 13 13 14 14 15 15 16 18 20 21 23 27 28 31 34
27 24 25 28 33 33 32 31 31 30 28 26 23 21 19 18 17 14 13 12 11 10 8 7 9 10 10 11 12 14 14 15 15 16 17 18 20 22 23 24 27 30 31
35 33 30 28 27 27 30 33 31 31 31 28 26 24 22 21 21 19 17 15 15 14 13 13 12 13 14 13 13 13 14 16 17 18 19 20 21 22 23 25 26 28 31
36 36 34 33 31 30 27 27 28 30 31 29 28 25 24 23 22 22 21 20 17 18 17 18 18 17 16 17 16 16 16 17 18 19 21 22 23 24 25 26 27 29 30
40 40 38 37 37 34 31 28 29 28 24 26 27 27 27 25 25 26 24 24 22 20 20 20 22 22 22 22 22 20 19 21 19 19 21 22 24 25 26 28 29 29 31
49 47 44 40 40 38 34 33 32 30 28 27 27 27 28 29 29 30 29 28 26 25 24 23 23 24 25 27 27 27 25 24 26 26 24 25 25 26 28 28 30 31 32
67 54 47 44 41 38 37 36 34 32 30 29 27 27 29 30 30 30 30 31 32 31 30 29 28 28 27 29 31 30 30 29 30 30 30 28 28 28 29 30 32 34 35
59 60 51 47 44 42 40 38 35 34 32 28 27 28 30 30 31 31 32 32 31 31 34 34 32 31 32 33 34 33 33 33 34 34 34 33 32 31 31 33 32 35 36
55 56 54 51 48 46 44 42 40 38 35 32 30 29 29 29 30 30 32 33 31 31 35 36 35 35 34 35 36 36 35 36 37 37 37 37 36 36 34 33 34 35 36
56 54 53 52 53 52 49 47 44 41 37 35 33 30 29 29 29 28 29 32 30 30 34 36 36 36 36 37 37 36 37 38 38 39 39 39 40 39 37 35 35 37 38
87 78 67 62 60 58 55 52 49 45 42 39 36 34 33 32 31 30 27 29 29 30 32 34 35 35 36 37 37 37 37 37 39 40 41 41 40 39 40 40 40 40 41
89 81 74 71 66 62 59 57 53 50 48 45 42 39 36 34 34 34 32 30 31 33 34 33 34 35 36 36 36 36 37 37 39 38 38 38 37 36 38 42 43 43 44
89 83 77 74 68 66 64 61 58 56 52 48 46 44 42 42 40 38 38 37 37 35 34 36 37 36 36 37 36 35 35 34 33 33 34 34 36 40 41 41 43 43 42
90 84 79 75 72 70 68 65 61 58 54 52 47 45 45 47 45 43 41 40 40 39 39 37 38 40 39 37 38 37 36 33 33 34 33 37 39 40 42 43 42 41 39
91 86 82 75 72 69 72 65 64 61 57 54 53 50 48 49 48 46 44 44 42 43 44 41 40 40 39 39 40 41 42 39 35 33 33 35 38 39 40 42 41 41 40
93 89 85 78 80 73 69 70 64 63 61 59 56 53 53 52 49 47 48 48 46 46 46 45 45 45 43 42 43 45 44 40 38 32 32 34 33 37 38 40 44 44 45
96 91 87 85 80 79 66 64 63 65 63 61 58 56 56 58 54 51 49 50 51 50 48 48 46 49 50 49 50 48 48 44 37 33 32 32 32 32 37 40 46 48 47
99 95 91 87 83 82 70 69 64 61 63 61 59 57 57 57 61 56 55 53 51 48 48 47 48 47 48 49 51 50 44 43 40 36 36 35 34 39 44 43 45 50 50
100 96 93 89 85 84 78 71 66 63 62 58 57 50 51 57 46 47 50 52 52 52 50 52 55 56 56 58 55 52 48 46 43 40 34 37 44 49 52 51 47 48 53
103 100 96 91 87 83 79 72 68 67 67 60 53 50 50 60 65 61 50 50 54 55 56 56 56 57 55 55 50 43 45 45 47 47 51 51 48 48 52 54 52 52 55
104 101 98 95 88 81 77 72 68 67 64 59 52 53 62 66 71 75 75 74 69 64 59 55 53 50 51 55 53 55 52 54 56 51 57 62 59 58 57 57 56 55 56
106 102 100 97 92 86 75 72 69 66 61 59 58 65 65 66 65 66 67 66 66 65 60 56 61 66 67 63 59 64 66 62 60 63 64 65 63 61 58 59 59 59 60
109 103 101 99 95 90 83 77 71 68 64 56 52 47 54 68 69 68 68 70 70 65 60 57 62 63 63 63 68 72 73 72 69 67 67 65 67 67 65 63 64 67 69
109 106 103 101 99 94 91 86 78 77 75 67 72 68 71 84 75 70 67 68 69 71 69 65 66 65 67 76 78 80 76 75 77 77 79 77 74 71 71 70 71 72 73

GFSGL_250_spd_084.txt.gz
Wind_Speed
28 33 36 35 32 29 25 24 21 19 17 14 11 9 6 4 4 2 1 3 5 7 10 12 12 13 13 12 13 14 14 14 15 15 16 17 18 20 20 22 23 24 26
22 24 29 31 35 34 30 28 26 22 22 18 17 14 12 8 7 6 6 4 5 5 5 6 8 9 10 11 11 11 11 11 12 13 14 16 16 17 18 20 22 25 25
26 20 22 29 33 35 33 31 31 29 26 25 21 19 17 15 13 9 10 9 9 7 7 6 6 7 9 10 9 10 11 12 12 13 14 16 17 18 19 20 22 24 28
25 25 20 20 29 37 34 32 34 34 32 32 29 26 24 20 19 17 14 13 13 12 11 10 10 10 10 11 11 12 11 11 12 13 14 15 18 19 21 22 23 25 26
30 30 29 24 19 23 34 33 32 34 33 31 32 30 28 24 23 22 20 18 16 15 14 14 13 13 14 14 14 15 15 16 17 18 19 19 19 20 21 23 25 27 29
35 34 38 30 27 27 25 26 29 32 33 31 30 30 30 28 27 26 25 23 21 20 18 16 17 17 17 18 19 19 20 21 21 23 23 25 25 24 24 25 26 27 28
41 36 43 39 33 31 28 28 28 27 25 28 28 29 29 29 28 28 28 26 25 23 21 20 18 19 19 21 22 23 23 25 26 27 28 28 28 30 29 28 28 28 30
43 40 42 40 37 33 30 32 31 30 29 27 26 25 25 26 26 29 30 29 28 26 26 24 23 23 23 24 23 23 24 24 28 29 29 30 31 32 32 31 31 30 30
39 38 42 48 41 37 35 35 34 32 31 29 27 25 26 25 26 28 30 29 28 26 26 27 27 26 26 28 26 24 25 25 28 28 29 30 32 33 34 34 35 35 32
51 51 46 50 49 47 38 40 33 35 34 30 28 28 26 25 26 27 28 27 26 26 27 28 27 26 27 28 28 27 26 26 29 27 28 29 31 32 33 36 36 35 35
60 53 41 44 62 65 52 44 38 37 34 33 30 28 27 26 24 23 22 23 22 23 28 27 26 26 26 27 29 30 27 28 30 28 29 29 30 32 34 34 33 34 35
51 38 25 41 47 45 54 51 44 42 37 34 33 31 30 29 25 22 24 25 23 23 25 27 27 26 27 28 30 31 30 30 30 30 30 31 33 34 34 32 32 33 35
59 58 49 48 45 51 54 51 48 46 40 37 36 36 34 30 27 26 25 27 26 26 25 27 30 28 28 29 29 27 28 29 29 28 27 27 27 27 29 31 33 35 35
71 72 72 63 54 51 55 53 50 49 44 42 41 40 38 33 31 30 30 30 31 32 30 28 31 32 30 29 30 30 29 30 30 29 29 30 30 30 32 33 32 32 34
86 85 81 77 66 60 57 55 52 50 49 48 46 45 42 40 39 36 37 37 37 37 33 31 34 34 33 31 29 28 28 28 28 28 31 33 32 31 31 26 25 29 32
101 93 89 88 85 78 68 62 62 60 57 54 51 50 49 46 44 42 41 41 40 38 37 39 39 37 35 33 32 31 29 29 28 30 33 31 33 30 30 26 25 30 33
109 104 98 89 91 86 85 81 81 69 66 61 59 55 54 52 48 47 45 43 41 40 42 44 42 41 40 39 36 35 36 35 34 35 35 36 35 30 33 32 29 27 30
113 109 104 101 94 98 92 89 85 80 73 68 65 60 56 55 54 52 50 48 47 47 48 48 46 43 43 42 40 39 39 40 40 39 37 35 34 30 30 31 26 29 33
116 114 112 110 106 96 78 87 84 83 76 76 68 63 60 57 57 55 54 52 52 51 50 50 47 45 45 42 42 42 43 45 43 41 41 36 34 32 34 28 31 33 37
121 119 118 114 111 108 104 95 88 85 81 77 71 64 60 61 58 59 58 56 54 53 50 49 47 48 42 42 42 44 47 47 44 45 40 37 33 33 39 40 31 31 35
121 120 118 116 113 109 107 102 100 88 84 80 73 71 63 62 59 59 56 55 57 54 52 53 55 54 49 46 48 49 54 50 51 49 44 35 30 33 37 42 48 48 46
121 116 115 114 112 109 106 103 99 94 88 82 80 74 67 63 57 51 51 50 50 53 49 52 53 55 51 49 50 55 55 49 49 46 42 39 41 41 44 42 44 50 51
118 116 114 114 111 109 106 103 99 95 90 84 82 78 69 67 57 54 58 58 54 45 51 53 57 57 60 62 67 64 60 65 63 57 56 50 51 51 52 51 53 54 52
123 120 120 115 113 111 107 104 102 96 91 88 86 84 74 68 62 60 61 65 61 63 65 64 63 67 69 67 63 62 61 64 64 65 63 64 65 63 62 60 58 59 59
122 122 123 117 115 112 110 107 103 98 94 90 82 77 76 66 66 64 58 59 59 61 63 67 71 72 70 69 71 71 71 72 74 74 75 69 70 71 69 71 71 69 70
120 119 124 121 117 114 113 112 107 102 97 92 88 80 73 70 72 65 64 66 61 61 60 71 71 72 72 82 78 77 76 76 80 78 76 70 73 75 75 80 77 75 77

GFSGL_250_spd_087.txt.gz
Wind_Speed
27 36 36 34 32 29 24 21 19 16 13 12 10 5 2 1 2 3 3 5 6 8 10 12 12 13 14 14 14 14 14 14 14 14 15 16 18 19 21 21 23 24 25
24 27 32 35 37 35 30 25 23 21 19 18 17 12 8 4 3 4 5 4 5 6 6 8 9 11 12 13 13 13 13 14 14 15 16 17 18 20 21 22 24 25 27
23 23 23 28 35 39 36 32 28 26 25 23 21 18 14 11 8 7 8 8 8 7 6 7 8 8 9 10 11 12 14 15 15 16 17 18 19 19 21 23 25 26 28
24 23 21 22 28 35 39 37 34 30 29 26 25 23 22 19 16 14 11 10 10 11 11 10 10 11 11 12 12 12 13 14 16 18 20 22 23 23 24 24 25 28 29
27 24 25 21 16 17 32 37 36 34 32 32 29 29 29 25 21 19 18 15 13 13 13 13 14 14 14 15 16 16 17 18 19 21 23 25 25 26 27 29 28 27 30
30 30 29 28 23 20 19 30 36 33 32 33 32 30 28 26 23 23 22 19 17 16 15 15 15 16 17 18 19 19 20 21 21 22 23 25 27 28 29 31 31 30 31
36 35 35 35 32 26 24 22 26 29 29 30 30 28 26 23 23 23 22 21 19 18 18 18 17 18 18 19 21 22 22 22 24 22 22 24 24 27 28 29 31 32 33
45 45 40 40 37 32 27 26 28 29 28 27 25 25 22 20 22 23 22 20 19 18 18 19 19 20 22 24 25 23 24 23 25 26 23 24 25 25 26 27 30 31 32
48 44 41 38 41 39 38 34 29 29 29 31 28 24 25 22 21 22 23 22 18 18 19 19 20 22 21 23 24 24 24 21 27 27 24 24 24 26 28 29 32 33 33
57 51 45 44 42 42 42 43 39 32 27 23 27 28 26 24 23 23 24 23 19 14 17 17 19 18 20 22 24 25 24 22 28 28 25 25 26 27 29 30 31 33 32
64 54 48 47 49 45 36 38 47 38 34 30 28 26 26 26 25 24 22 20 17 11 14 16 18 17 18 21 22 22 21 23 27 27 27 25 26 26 27 27 27 29 32
63 63 56 58 57 55 45 36 47 43 43 37 34 29 28 27 24 22 22 20 17 15 15 16 17 18 19 20 21 19 18 19 22 23 22 20 21 23 23 25 28 28 26
66 66 66 60 63 61 55 52 47 53 58 46 43 35 32 30 25 21 21 22 20 19 18 18 19 19 21 21 21 20 19 18 19 19 19 19 21 23 24 26 28 25 20
70 70 79 77 73 63 58 55 56 51 59 53 53 45 37 34 31 27 26 25 25 25 24 21 22 27 26 25 23 23 21 20 21 21 19 21 22 25 26 27 27 21 20
77 77 82 81 73 66 59 54 49 50 61 63 58 48 40 39 37 31 28 29 32 33 28 27 29 32 32 30 30 27 26 25 25 23 26 25 23 25 27 29 28 24 23
84 84 85 78 75 73 71 63 55 46 58 61 57 53 47 43 37 35 33 34 34 34 32 35 37 36 37 34 33 34 32 32 31 31 31 31 30 31 32 34 32 29 26
94 88 91 80 76 75 76 64 59 54 56 59 59 52 52 47 41 38 37 39 39 38 39 40 42 41 39 37 37 39 37 36 37 37 36 36 35 33 31 34 34 31 31
105 99 93 90 87 83 83 70 66 59 54 51 57 56 58 59 56 49 43 44 45 45 44 44 45 46 43 42 41 43 42 41 39 40 39 36 36 32 33 33 32 36 37
111 113 109 102 100 95 90 81 75 75 70 66 67 67 68 70 61 63 59 51 51 50 49 48 49 49 48 47 47 47 43 40 39 41 40 38 37 41 39 37 35 34 38
119 115 117 115 106 102 97 97 90 80 82 77 78 72 69 67 66 68 67 60 56 55 56 55 53 52 51 50 50 50 47 45 44 46 45 42 39 38 40 37 37 38 33
125 128 121 119 118 120 109 100 95 95 92 85 86 86 80 75 79 79 74 64 62 58 58 56 54 54 50 51 49 50 50 49 49 49 48 48 53 48 44 38 41 42 39
132 133 133 130 128 125 120 114 107 103 102 101 95 92 90 81 79 75 69 67 63 63 64 59 53 50 54 49 51 55 56 53 51 47 50 56 53 56 49 50 52 47 46
138 136 138 139 135 132 129 127 124 120 114 109 106 106 104 99 87 86 86 80 72 68 64 58 53 52 51 53 49 51 45 46 51 53 57 58 57 51 53 53 51 53 58
146 141 137 136 134 134 132 129 127 122 117 114 113 111 109 107 104 99 95 92 89 82 71 64 66 62 63 60 59 58 58 56 62 60 62 60 57 64 67 66 64 64 66
146 144 140 138 133 132 134 133 128 127 124 120 116 113 110 108 105 103 98 96 95 89 82 75 72 68 65 61 65 68 69 66 65 66 66 67 70 76 76 78 78 76 74
145 143 142 141 139 134 132 130 129 127 124 123 121 119 116 111 109 106 103 100 98 95 88 83 78 75 61 65 67 70 68 66 69 75 71 71 72 75 80 78 75 75 83

GFSGL_250_spd_090.txt.gz
Wind_Speed
28 31 31 30 26 24 21 19 16 13 11 9 7 3 2 2 2 3 4 5 6 8 10 12 12 13 14 14 15 15 15 15 15 16 17 18 20 22 23 24 26 27 28
23 25 29 29 31 31 28 25 22 20 18 15 13 9 7 6 4 3 5 5 4 4 5 6 7 8 10 11 11 11 12 12 14 15 17 19 21 22 24 25 26 27 27
22 22 23 27 31 32 33 32 29 24 23 21 18 15 13 11 8 6 6 7 8 6 4 4 5 5 7 8 9 10 10 11 13 15 18 19 21 23 25 26 27 28 29
23 22 21 24 27 28 29 33 33 31 28 27 24 22 20 17 15 13 12 12 9 9 8 8 8 8 8 9 10 11 12 13 14 16 18 19 21 22 23 25 27 28 29
32 27 25 21 20 22 22 28 31 31 33 32 30 28 25 23 22 19 17 16 14 13 11 9 10 11 11 11 12 12 14 15 16 17 18 19 20 20 21 22 23 25 28
39 33 27 24 20 18 20 20 22 26 29 30 32 31 31 28 25 20 19 19 17 16 15 13 11 12 12 13 13 14 15 17 17 16 16 17 19 20 21 21 23 24 27
44 39 32 29 26 22 20 19 20 19 20 26 28 26 30 28 26 23 19 19 18 17 16 13 13 13 14 16 18 19 20 19 19 20 17 19 19 22 22 23 25 26 28
51 48 39 34 31 26 27 26 25 22 19 20 24 21 22 24 22 21 21 19 17 15 16 15 14 14 15 17 19 18 20 19 20 24 20 19 21 23 25 26 26 27 27
59 57 46 43 37 31 34 32 30 24 25 22 24 21 17 18 17 18 19 19 17 15 14 15 14 15 15 18 19 18 20 19 22 24 23 21 21 23 25 24 25 23 23
65 59 51 51 45 38 39 39 36 33 32 27 22 24 20 19 17 19 21 21 17 13 15 14 13 13 14 16 16 16 14 18 19 18 17 17 18 20 22 21 22 23 22
69 63 57 54 49 47 43 38 43 40 40 38 33 26 23 20 19 20 22 24 16 10 15 14 12 10 11 13 12 10 8 12 14 13 13 13 13 15 18 20 21 21 19
76 69 64 58 55 52 50 47 42 43 45 40 41 39 30 25 19 21 21 23 18 16 16 13 11 9 10 12 12 9 9 10 13 13 12 14 15 15 16 20 23 24 20
83 80 75 69 64 61 56 53 50 49 41 46 41 46 43 34 26 24 23 23 19 20 16 13 12 11 14 16 15 12 12 13 14 16 16 17 18 18 18 21 23 25 24
91 87 80 75 73 67 64 63 55 55 52 46 44 40 48 44 40 28 30 28 26 23 21 16 15 18 22 21 19 17 18 18 19 19 19 21 21 21 20 23 26 29 29
96 93 89 81 77 76 70 67 62 63 56 53 46 44 42 45 51 44 34 31 32 31 26 24 23 24 25 27 23 20 20 21 22 23 25 26 26 26 25 26 28 29 29
99 98 97 96 86 80 74 71 71 68 64 63 52 51 48 48 48 52 43 39 39 35 31 31 30 27 26 26 26 25 25 27 24 25 27 27 29 29 26 25 26 28 30
109 107 103 98 89 86 86 78 80 76 71 57 57 55 53 55 47 53 52 46 41 37 36 36 33 31 29 29 30 30 30 32 31 31 32 28 30 30 29 27 26 28 31
116 113 107 101 94 92 88 82 83 81 76 65 63 59 59 56 50 50 56 52 51 44 38 38 38 37 33 35 37 36 36 35 34 34 31 29 31 33 33 34 34 35 32
120 119 113 106 99 96 90 84 84 85 84 77 72 58 61 58 47 47 50 53 50 48 48 45 42 40 43 41 39 40 41 39 36 36 35 34 35 36 35 33 36 35 38
125 123 119 111 105 98 95 89 85 87 89 88 82 76 61 60 59 55 51 53 57 53 54 55 54 49 45 44 44 41 42 38 41 44 45 44 41 37 39 39 37 42 46
133 130 125 118 112 108 101 94 86 88 92 93 90 86 83 66 68 63 62 55 50 58 59 59 57 49 48 48 47 41 40 44 47 44 43 48 49 43 39 36 34 39 46
139 135 130 125 118 113 108 100 95 96 98 99 98 94 91 84 68 74 77 71 61 55 60 62 53 53 51 51 50 44 45 46 44 45 46 45 48 47 44 38 32 36 36
141 139 137 129 124 120 115 108 106 102 103 104 103 98 95 91 88 83 77 74 76 75 72 64 63 62 56 51 46 52 57 52 51 55 50 43 44 46 44 44 47 39 33
140 139 138 135 131 127 124 119 114 113 110 109 108 105 103 106 99 91 89 88 87 84 81 79 76 72 62 62 65 66 66 67 62 61 62 55 55 51 48 44 48 51 54
139 138 139 138 136 134 128 126 124 121 119 114 115 114 108 107 109 108 102 101 94 90 85 88 87 87 89 86 87 82 81 81 76 70 65 59 60 59 56 57 62 65 64
135 140 142 141 138 136 132 130 127 127 126 124 119 120 121 118 115 116 113 109 106 102 100 99 99 98 97 96 97 94 91 87 85 79 73 77 78 74 75 76 75 75 80

GFSGL_250_spd_093.txt.gz
Wind_Speed
21 21 26 28 24 21 19 16 13 9 6 6 3 2 2 1 3 3 4 5 6 7 9 9 10 11 11 11 12 13 14 14 15 16 17 18 19 19 20 21 22 23 24
20 22 22 28 30 27 24 21 18 15 11 10 9 9 8 6 2 2 3 3 2 1 1 2 4 5 6 6 8 9 10 11 12 13 15 17 18 19 19 19 20 21 22
24 24 22 26 33 32 30 27 24 21 18 15 12 12 11 10 8 6 6 7 6 5 4 5 5 5 5 6 6 8 9 10 12 14 15 16 17 19 19 20 22 23 24
30 29 28 29 31 34 31 30 29 28 26 23 19 17 16 15 13 13 12 12 12 10 8 6 7 9 9 9 9 10 10 11 12 13 14 16 16 18 20 22 24 27 27
37 34 32 31 30 28 28 32 33 32 31 29 25 24 21 19 17 16 19 17 16 14 13 11 11 10 9 9 9 9 10 12 13 13 14 16 18 18 20 23 25 26 27
41 38 35 32 29 29 26 28 29 30 32 32 32 30 27 25 23 21 21 21 19 17 16 14 13 11 10 10 11 12 13 15 17 16 16 16 19 20 21 23 24 24 25
46 44 41 36 31 29 28 24 25 25 24 27 29 30 30 26 26 24 23 20 19 17 17 15 15 13 11 12 14 14 16 15 16 18 18 18 19 21 19 20 20 20 20
40 49 52 44 39 34 31 29 27 23 19 18 18 21 24 25 23 22 20 20 19 16 17 17 17 15 13 13 15 15 17 16 16 16 16 17 17 18 15 15 16 17 16
62 68 59 47 44 41 37 34 30 26 23 21 18 16 16 17 18 20 18 18 16 16 16 17 14 13 11 14 16 14 15 16 13 10 9 10 12 14 14 13 15 15 13
71 70 64 52 49 48 45 41 35 28 30 29 24 22 21 20 18 19 19 19 19 17 14 14 14 12 11 15 15 13 9 12 9 6 5 7 10 12 12 12 16 17 15
76 73 69 61 56 55 52 45 39 40 36 36 34 31 23 24 24 24 21 19 18 15 16 17 15 13 13 14 11 6 5 9 8 8 7 9 11 14 13 15 15 18 19
82 80 77 69 63 62 61 56 45 43 42 41 37 35 36 32 23 25 25 22 15 17 19 18 18 17 16 17 14 9 9 9 10 10 9 12 13 14 14 16 17 17 17
88 86 84 81 74 69 65 66 55 49 46 46 42 41 38 38 36 32 25 23 19 21 22 21 20 21 20 21 18 13 11 11 13 12 12 15 17 15 15 16 19 19 19
95 93 90 87 82 79 73 72 66 57 55 51 48 45 44 46 42 37 38 28 22 23 25 23 22 23 27 27 18 14 12 14 16 15 16 17 20 21 19 20 20 21 20
101 99 97 92 85 83 80 77 70 67 63 60 56 54 46 44 46 43 42 36 33 30 28 27 28 31 30 30 25 20 16 18 20 17 18 19 20 24 24 22 22 21 23
108 104 101 97 92 88 86 81 78 71 71 67 65 58 54 48 45 46 42 38 37 40 37 33 35 33 33 31 29 25 23 22 22 20 21 21 22 23 22 21 22 24 26
114 109 107 103 97 95 93 88 86 82 77 72 67 62 57 51 49 45 35 32 33 40 40 43 41 39 35 31 32 30 30 26 25 24 23 23 22 22 23 21 21 23 26
119 116 111 109 105 102 101 96 95 94 83 79 74 70 65 60 52 44 40 43 46 45 49 48 50 45 42 37 35 33 33 28 28 26 26 26 27 25 25 24 24 25 27
126 123 119 114 112 109 106 104 101 99 91 89 81 75 70 62 60 54 51 51 46 49 54 49 51 52 47 42 38 34 36 30 29 28 29 28 30 32 35 33 30 29 29
128 128 124 121 117 114 112 110 108 102 97 91 90 84 75 72 70 67 58 59 55 52 48 49 51 56 53 48 47 45 45 35 37 33 33 32 33 35 34 33 35 33 29
130 129 129 127 123 119 118 114 113 109 105 96 92 86 81 78 75 72 71 61 58 59 51 46 48 54 54 53 52 51 52 50 42 38 37 36 30 31 23 28 35 36 35
127 132 131 131 129 124 122 118 118 114 111 104 102 96 92 90 82 80 79 75 68 58 54 45 48 57 54 47 45 48 52 53 48 44 45 42 37 34 23 29 34 37 41
125 130 134 133 132 130 127 123 120 118 114 109 108 103 97 92 94 89 84 85 83 77 66 73 64 64 64 55 50 52 55 55 54 47 46 50 45 38 38 40 45 49 44
123 129 134 135 133 135 130 128 124 119 116 114 110 104 100 97 95 97 92 93 89 85 86 78 82 71 66 60 54 55 57 59 55 54 57 57 61 62 57 59 60 57 61
117 127 132 136 136 136 134 132 127 126 119 117 114 110 107 102 102 102 100 97 97 93 92 98 88 80 81 75 70 68 64 67 68 65 63 68 68 72 78 74 64 63 63
106 114 126 132 134 134 131 132 129 129 126 121 121 118 115 109 107 106 104 101 100 100 99 100 95 92 86 87 82 82 85 85 82 81 80 83 82 79 76 73 71 75 75

GFSGL_250_spd_096.txt.gz
Wind_Speed
21 16 17 22 22 21 18 15 12 11 9 6 5 3 2 3 3 2 3 5 8 9 9 9 10 10 10 10 9 9 9 10 10 11 13 15 15 18 19 20 22 23 26
26 22 21 22 26 26 24 21 16 14 12 10 6 4 2 2 1 1 2 4 2 2 2 2 3 4 4 5 5 6 7 8 10 11 13 14 16 18 19 22 23 26 26
32 29 26 25 29 30 29 27 24 20 17 14 11 9 7 6 5 4 3 4 4 5 4 4 3 3 3 4 5 7 8 8 9 11 12 14 17 19 20 21 23 23 23
35 32 30 30 28 31 32 33 31 28 26 22 18 16 13 11 10 10 9 8 7 7 6 6 6 6 5 5 6 6 7 9 11 12 14 14 16 17 18 21 21 19 20
41 38 36 33 31 30 32 35 34 34 32 29 27 24 22 19 16 14 13 12 12 11 8 8 8 9 8 6 5 6 9 12 14 15 14 15 16 16 16 14 16 16 16
47 44 41 38 35 31 31 32 35 36 35 34 33 30 28 26 24 21 17 16 17 14 11 10 9 8 9 9 9 9 11 13 14 14 15 14 14 12 12 11 11 11 12
48 45 43 44 40 36 34 32 34 35 33 34 35 34 33 31 29 27 24 21 19 18 17 14 11 12 10 10 10 10 12 13 14 14 14 13 14 10 8 8 7 9 8
52 50 46 49 45 39 36 36 34 32 30 30 30 32 33 33 31 29 27 24 23 21 20 18 16 15 13 12 13 11 13 12 13 9 8 11 11 11 8 8 9 8 9
56 53 54 51 48 44 40 40 35 33 32 29 27 27 29 29 27 24 24 25 25 22 22 22 19 16 12 13 15 14 13 11 12 6 7 9 11 8 7 8 10 8 11
63 59 57 57 52 50 46 44 40 37 36 32 28 25 23 22 21 22 23 23 24 23 22 23 21 19 16 16 17 16 12 11 13 7 8 10 9 11 9 8 9 9 10
70 67 64 61 57 49 59 57 50 44 42 38 34 29 27 25 23 22 23 26 28 24 22 22 22 20 20 22 21 19 14 16 13 9 9 10 10 11 10 9 11 13 13
78 76 73 71 67 68 66 63 56 52 49 44 40 33 34 36 36 27 26 27 26 22 22 24 24 23 23 24 24 19 18 20 15 12 11 12 12 11 11 11 12 13 14
88 83 81 79 78 75 74 73 58 58 56 51 49 46 41 35 36 38 34 30 33 26 25 27 25 25 26 27 29 21 21 21 18 16 14 12 15 13 11 13 15 15 15
94 92 88 87 85 84 83 80 73 65 61 58 55 49 49 47 49 42 40 35 32 34 29 26 27 26 26 31 34 25 21 22 22 20 16 16 17 17 14 12 11 13 14
99 97 95 93 91 89 89 85 80 74 68 64 61 58 56 53 54 49 45 40 31 32 35 28 30 31 32 32 34 28 24 24 24 24 21 22 21 19 17 16 16 16 17
105 104 102 98 97 96 93 91 87 82 75 71 66 65 61 59 57 54 49 44 41 39 39 37 35 38 35 31 29 31 27 26 27 25 25 25 24 20 21 19 21 20 20
115 110 107 105 103 100 99 96 93 89 84 80 77 73 72 68 64 58 53 47 47 41 38 44 44 42 41 37 33 29 30 30 31 31 30 27 25 22 21 23 24 24 24
119 118 114 112 110 107 104 103 98 96 92 90 86 82 76 77 70 65 60 53 49 48 46 48 47 47 43 40 39 40 37 37 35 35 31 25 23 23 25 28 27 26 28
122 122 121 119 117 113 110 108 106 102 99 97 94 90 84 81 79 75 68 62 57 55 50 47 48 45 43 42 45 45 47 45 42 41 41 35 30 26 28 29 30 26 28
125 124 125 125 124 119 116 113 112 108 106 102 98 96 92 87 83 81 80 70 63 58 55 55 52 51 52 51 51 49 50 52 48 45 44 41 40 35 31 29 30 30 26
125 127 127 127 129 127 123 119 117 113 112 109 106 101 97 95 88 84 82 78 74 69 62 62 62 58 56 55 58 56 55 54 54 54 47 45 47 47 38 33 32 30 25
123 127 127 130 131 131 128 125 122 118 115 114 112 109 107 101 95 90 86 82 80 79 72 69 70 66 62 59 57 56 56 55 53 49 49 52 53 52 54 46 43 38 32
116 120 126 130 132 133 132 131 128 122 119 118 117 115 115 110 104 99 93 88 88 84 78 76 78 76 67 67 65 60 60 61 60 59 53 49 41 45 52 49 54 51 49
110 114 118 126 132 133 135 134 132 129 125 121 121 120 119 115 113 108 102 98 96 91 93 91 84 81 79 73 63 60 65 71 70 66 63 59 54 52 56 59 58 57 55
103 108 112 117 124 131 135 136 134 132 132 128 125 122 122 121 119 116 110 107 101 100 97 96 96 88 86 81 83 76 72 69 73 73 71 71 67 67 65 64 65 64 61
95 102 107 111 112 121 131 135 136 135 134 133 131 127 124 123 122 121 115 111 108 104 103 99 98 98 94 92 90 90 92 88 80 82 80 78 78 77 76 76 76 77 77

GFSGL_250_spd_102.txt.gz
Wind_Speed
19 21 20 18 20 19 19 15 12 12 13 11 15 9 8 7 7 7 8 7 7 7 6 6 5 4 5 5 6 8 9 11 13 14 16 17 18 18 18 21 22 22 22
21 23 22 23 21 24 22 22 19 19 18 17 16 13 10 8 8 8 7 6 4 3 3 2 1 2 3 5 6 8 9 9 12 13 14 15 16 15 16 17 19 20 22
25 25 25 25 25 25 27 26 26 25 24 23 20 17 13 10 9 9 9 7 7 6 6 6 6 5 5 5 6 7 6 6 9 12 13 13 14 14 14 13 15 18 20
17 11 31 30 28 26 29 30 30 29 26 24 22 20 17 13 10 10 10 10 8 7 8 8 7 7 7 8 6 6 5 8 10 10 12 12 13 13 13 12 11 15 19
40 34 38 37 42 34 33 32 34 34 32 28 26 23 19 17 16 15 13 13 12 12 12 11 11 11 10 10 10 10 10 11 11 11 11 12 11 11 11 11 9 12 13
56 54 45 34 40 40 39 36 35 37 36 34 32 29 28 25 22 22 20 17 15 14 15 15 14 14 13 12 12 13 14 12 12 12 12 11 11 9 8 9 9 10 10
58 58 52 45 38 35 39 38 37 37 38 38 40 37 35 33 31 29 27 24 22 19 19 18 17 17 18 16 16 14 13 13 13 13 9 9 10 6 7 6 7 7 8
64 62 56 51 51 42 38 41 40 39 38 41 43 44 43 40 37 36 33 31 28 26 24 23 22 20 18 18 18 16 14 13 11 12 8 6 4 3 4 4 5 6 6
76 69 61 56 52 49 50 45 42 40 39 38 42 45 47 46 43 41 39 36 35 33 30 27 26 24 20 20 20 19 18 13 13 12 6 6 2 3 3 2 2 4 3
78 80 67 59 56 53 50 53 49 47 47 45 42 45 44 49 46 44 43 42 41 40 34 32 31 28 23 20 21 20 22 14 17 15 9 8 7 4 3 2 2 1 2
75 74 69 65 62 63 60 60 58 58 58 52 48 46 45 45 42 40 41 41 43 43 38 35 32 28 23 21 22 23 24 15 19 19 13 10 10 8 7 7 6 4 3
80 78 76 73 70 69 69 66 63 60 58 58 57 52 49 49 45 42 40 39 38 38 37 37 30 28 27 23 22 26 27 19 20 22 17 12 12 12 11 9 10 10 9
87 85 83 80 78 76 74 72 68 66 63 60 57 58 54 52 51 43 41 39 35 34 35 33 26 25 24 25 26 27 26 22 20 20 18 14 14 14 13 13 14 12 13
92 91 90 88 86 84 80 78 74 71 69 67 62 60 58 56 53 49 43 39 41 36 33 30 31 20 20 25 26 26 27 20 16 17 18 16 16 17 18 16 16 16 17
99 97 95 94 93 92 89 85 82 78 75 74 71 66 64 63 59 55 48 47 48 45 41 40 39 35 34 33 29 27 24 20 12 12 15 20 23 25 25 20 19 20 21
107 105 103 101 98 96 94 92 89 87 84 80 77 73 72 69 66 64 58 55 55 55 47 45 49 42 38 32 31 29 21 15 8 6 11 17 24 27 28 29 26 27 28
115 113 111 108 106 104 101 97 94 93 91 88 86 82 78 77 73 70 66 61 63 60 54 50 52 51 45 39 37 31 25 23 23 23 19 18 26 29 34 33 32 31 33
124 121 119 116 114 111 108 104 102 99 97 94 93 89 86 86 82 77 78 71 68 66 63 58 55 58 51 44 43 39 35 33 33 35 39 46 59 44 48 40 39 34 35
134 131 129 125 122 119 116 112 108 106 103 101 98 96 97 93 90 87 86 82 79 75 71 69 65 61 61 54 50 45 44 41 43 35 38 36 49 55 51 50 47 37 33
141 139 137 134 132 129 125 122 118 114 110 108 105 104 103 100 96 96 93 93 90 84 79 76 74 69 65 61 56 52 49 50 48 45 42 34 36 48 53 55 59 50 45
141 141 142 142 141 138 135 133 129 125 120 115 111 110 110 107 102 101 104 98 98 95 90 85 81 77 76 71 65 62 59 57 60 54 51 43 41 67 63 58 58 58 51
126 130 133 137 141 141 140 139 137 134 130 125 122 118 115 111 107 106 108 107 105 102 99 95 91 86 83 80 77 73 72 68 66 64 67 47 48 55 58 59 60 62 59
117 118 119 120 124 128 133 139 140 138 136 133 131 128 123 119 115 110 114 118 111 109 103 102 99 93 91 88 86 83 82 80 79 75 76 73 54 56 59 59 60 64 66
105 108 110 113 115 117 119 122 129 136 140 139 136 133 131 128 125 122 120 119 116 115 113 107 107 104 101 98 95 92 89 88 87 84 83 79 81 73 69 68 67 69 71
90 95 98 102 105 107 110 113 117 122 129 134 136 136 136 134 131 129 126 124 121 120 119 117 113 111 110 106 104 101 98 96 93 92 90 87 85 85 81 79 79 77 78
76 79 83 87 91 95 100 105 109 113 115 117 122 130 135 133 132 133 132 132 129 125 123 122 120 117 116 113 110 110 106 106 102 98 97 94 92 92 87 85 88 91 89

GFSGL_250_spd_105.txt.gz
Wind_Speed
19 16 15 11 13 11 10 11 15 12 13 12 11 9 5 4 4 5 4 3 3 3 3 4 4 4 4 5 6 8 9 11 13 16 17 16 17 18 20 22 23 24 23
27 22 22 17 13 13 13 16 16 17 15 14 15 14 7 6 6 3 3 3 3 3 2 1 3 4 3 5 7 9 9 10 14 16 15 16 16 14 15 17 21 22 23
37 31 25 26 27 18 15 18 20 17 19 20 17 15 11 10 9 7 7 6 4 5 5 5 6 8 8 8 9 9 10 11 14 15 15 15 15 12 12 12 18 22 25
22 24 19 26 28 18 23 17 20 22 21 24 23 21 20 17 14 11 10 9 9 8 7 6 8 9 9 9 9 10 11 12 13 13 14 13 13 11 10 9 13 17 23
36 37 26 28 26 21 29 27 27 24 23 27 29 27 24 22 18 16 13 12 11 11 11 11 9 10 11 11 10 10 11 12 12 12 12 10 11 10 12 13 14 14 15
41 40 36 22 24 24 29 35 33 29 28 30 32 33 31 28 25 23 20 17 16 14 13 13 11 11 12 12 12 12 11 11 10 10 9 8 9 7 9 10 10 12 10
59 50 44 41 39 33 32 33 27 26 27 32 35 36 38 35 32 31 30 27 23 21 21 19 17 13 13 13 14 12 13 13 12 8 5 3 6 4 5 5 6 7 6
68 70 68 60 58 59 59 48 33 23 25 33 40 38 38 40 39 37 36 35 32 29 26 25 23 20 17 15 15 14 15 14 13 12 6 3 2 1 1 4 5 4 4
74 74 72 72 68 63 58 57 46 34 32 39 43 42 40 41 40 41 41 41 39 37 33 31 28 26 22 20 20 18 18 16 16 14 10 7 7 5 6 6 6 6 4
74 77 78 77 73 70 67 62 56 53 47 53 48 45 38 44 42 37 42 44 45 42 41 37 35 32 28 26 25 23 24 17 19 17 13 11 12 11 11 10 9 9 8
78 80 82 84 77 75 73 72 68 63 61 59 58 54 49 49 44 42 42 43 45 44 45 42 38 37 36 33 30 30 26 17 19 21 18 17 15 15 15 14 13 12 10
76 78 86 83 75 76 76 79 75 66 66 70 68 62 59 56 56 50 43 43 42 45 47 47 43 40 36 33 28 30 28 22 21 22 22 21 18 17 17 16 15 16 14
81 80 82 86 82 78 76 80 85 78 72 70 68 70 67 65 63 59 53 48 45 45 45 44 44 41 37 33 31 28 27 26 21 22 24 21 18 19 20 18 18 18 17
91 89 89 87 84 87 91 88 86 82 82 78 74 72 73 70 68 66 63 57 51 48 48 48 47 45 39 34 31 30 29 28 26 25 22 22 20 20 21 20 18 17 19
98 96 95 94 93 91 89 89 89 90 85 82 81 79 78 75 71 68 64 61 56 54 50 50 49 49 42 38 35 31 29 31 30 27 23 24 25 24 23 16 17 17 21
104 103 102 101 100 99 97 95 93 91 88 87 87 85 82 81 79 72 69 64 62 60 56 54 53 53 49 46 40 40 39 37 33 28 23 24 23 21 18 12 11 14 22
111 109 108 107 106 105 103 102 100 99 97 94 92 91 90 88 84 80 76 71 67 66 64 60 57 59 56 52 52 49 48 44 40 37 33 32 24 24 26 24 23 19 20
120 119 117 115 114 112 110 108 107 105 103 102 100 96 95 93 91 88 84 77 75 71 71 68 65 66 63 62 58 55 54 50 46 46 41 39 36 38 43 42 41 36 42
129 127 125 124 122 120 119 117 116 114 112 109 107 104 102 99 97 96 91 86 83 80 78 79 74 74 74 69 67 62 62 58 55 53 50 47 45 46 47 49 42 32 38
138 136 135 133 131 129 127 125 124 122 120 117 115 113 111 107 105 102 97 93 90 89 87 85 84 81 80 77 74 73 69 66 63 59 57 55 51 51 52 48 48 50 38
144 144 144 144 142 140 137 135 133 130 127 125 122 120 119 116 112 108 104 98 94 95 96 94 90 89 89 85 81 79 76 74 71 68 64 59 59 59 57 56 55 46 39
137 141 144 145 145 145 145 144 143 140 138 135 132 129 126 124 119 113 110 107 103 102 102 101 98 95 93 94 89 86 84 81 78 77 73 68 66 66 63 58 55 53 41
122 125 128 131 134 138 142 144 144 144 143 143 141 138 136 134 127 121 118 114 112 110 107 107 105 101 100 97 95 92 90 89 87 84 82 78 75 74 70 66 64 66 63
109 112 115 117 120 122 124 128 132 137 139 140 140 139 139 141 135 131 129 124 121 118 115 113 113 107 106 105 103 100 100 98 96 95 90 86 83 81 80 76 77 74 67
97 98 100 102 104 108 111 114 117 119 121 124 128 133 136 139 139 136 136 134 131 126 125 122 118 113 111 111 110 107 105 104 104 102 100 95 93 91 88 88 86 83 79
81 84 85 86 90 94 98 101 105 107 110 113 116 119 122 126 131 134 136 137 136 134 133 131 128 123 119 116 115 114 112 110 109 110 107 105 101 98 98 96 94 94 92

GFSGL_250_spd_108.txt.gz
Wind_Speed
7 4 9 17 20 12 11 17 15 10 10 8 7 5 8 5 4 3 5 5 6 6 5 4 5 6 6 8 9 10 11 13 17 17 17 16 15 17 21 24 23 22 21
11 16 16 9 14 21 24 13 14 17 15 12 13 11 13 8 8 3 3 4 3 3 2 1 2 5 7 9 9 10 11 12 14 14 14 15 14 12 17 21 22 24 26
20 21 26 16 18 13 21 25 18 12 18 19 17 13 10 10 11 6 5 7 6 4 5 6 6 5 5 5 7 8 9 10 12 12 12 13 12 11 13 17 20 22 25
23 22 24 27 25 17 19 20 20 22 17 17 21 21 17 12 15 12 9 8 6 6 7 6 7 6 7 7 8 8 7 7 9 10 11 12 11 12 15 14 16 18 18
29 25 21 23 28 25 22 21 20 18 20 22 21 23 22 23 17 15 16 15 12 10 10 10 8 7 7 7 9 9 10 9 6 7 7 8 8 9 12 12 13 13 14
41 33 35 29 31 30 28 24 21 25 25 23 20 21 25 25 25 23 22 22 19 17 15 13 12 12 12 11 11 10 10 11 7 7 5 4 3 5 8 8 7 8 10
50 45 41 42 39 38 35 32 28 24 28 26 25 25 28 26 29 29 30 31 28 25 24 21 17 16 14 14 13 12 11 12 11 8 4 2 2 4 5 7 6 7 7
61 54 49 44 41 42 36 40 41 33 34 30 28 31 31 26 31 32 31 34 35 33 30 28 26 22 19 18 19 17 17 15 15 11 10 7 8 8 7 8 9 8 9
74 66 59 54 52 52 43 41 41 46 43 42 39 34 34 29 31 35 38 36 37 39 38 34 32 30 25 24 25 26 24 20 19 17 14 13 13 13 11 11 11 10 10
83 78 72 64 63 63 61 53 54 56 56 51 52 47 44 40 36 34 35 38 43 43 40 39 38 37 35 31 31 31 32 24 24 24 19 17 17 17 16 17 17 16 17
90 86 81 78 75 78 75 70 68 65 66 61 52 49 50 53 48 45 43 40 39 42 43 41 39 41 41 39 38 38 36 32 30 29 26 23 25 24 24 22 22 21 21
96 94 91 89 86 85 89 88 84 82 81 72 69 64 62 60 56 54 52 52 49 45 42 42 40 40 41 41 40 41 41 40 34 31 32 29 28 30 27 27 25 24 24
103 100 95 90 90 90 90 90 94 91 86 84 81 73 71 66 69 66 63 62 61 56 54 54 46 43 43 42 39 38 42 42 41 37 34 35 32 31 33 30 28 28 27
95 92 90 90 91 92 93 94 96 95 99 91 85 83 79 79 76 73 73 70 69 64 64 64 57 52 49 47 47 43 41 40 42 42 39 38 34 32 36 34 31 30 30
100 97 94 91 91 91 96 97 99 99 99 97 100 94 87 89 87 82 75 68 75 75 71 69 66 62 59 54 53 50 43 43 45 46 42 38 37 36 38 39 36 33 32
106 105 102 99 97 94 94 95 100 102 102 102 100 96 90 93 90 88 89 86 80 77 77 76 72 66 64 62 58 54 49 46 48 50 45 42 40 40 41 41 37 35 33
113 111 109 107 106 105 102 101 99 97 102 103 104 99 100 92 90 88 90 90 92 83 84 82 77 73 68 65 64 60 57 51 53 52 51 48 42 42 43 42 39 39 37
121 119 116 115 113 112 111 110 108 106 105 104 102 104 106 102 105 101 99 98 94 91 88 86 82 79 74 69 69 67 62 61 57 60 58 53 50 47 47 46 43 43 41
126 125 124 123 121 119 118 116 115 114 114 112 110 110 108 106 105 106 106 104 99 96 93 88 86 83 80 76 74 72 71 68 65 66 66 61 58 55 55 54 52 51 48
133 131 131 130 128 126 125 123 121 120 119 118 118 117 116 112 112 110 108 106 103 100 97 95 92 90 87 84 81 79 77 75 74 72 71 72 66 64 63 60 60 59 57
142 140 138 137 136 134 132 130 129 128 126 126 125 125 123 120 118 118 116 112 110 107 103 101 99 98 95 92 89 86 84 83 81 81 80 77 73 71 70 68 67 67 63
146 148 147 145 144 144 142 140 138 136 134 133 133 132 132 131 128 127 124 122 120 117 114 111 107 104 102 99 96 95 92 90 88 87 88 87 81 77 77 76 75 74 71
130 134 138 142 145 148 150 149 148 146 145 144 142 141 140 139 137 136 134 131 129 127 123 120 118 114 110 107 104 101 99 99 97 94 93 94 95 88 85 84 83 81 80
117 120 121 123 127 131 134 139 143 147 148 149 150 150 149 148 147 146 144 140 137 136 133 130 125 122 119 116 113 110 108 104 104 104 101 98 99 100 94 90 90 89 88
100 103 107 111 115 118 119 121 124 127 130 132 136 140 144 146 148 149 148 146 144 144 143 140 134 130 125 124 122 119 118 112 109 109 108 107 104 104 105 102 97 98 94
88 92 97 101 101 100 101 104 108 113 116 119 120 124 127 129 132 136 140 143 144 145 145 144 142 139 137 135 132 129 124 119 116 114 113 112 112 111 108 107 109 103 103

GFSGL_250_spd_111.txt.gz
Wind_Speed
10 8 6 2 8 11 12 13 6 6 13 12 9 8 9 8 8 9 8 8 9 7 7 6 6 7 7 9 10 11 11 13 14 16 15 14 15 17 18 19 22 25 23
12 16 11 4 5 3 8 8 16 14 6 9 11 9 8 5 4 6 6 5 8 8 8 8 8 9 9 9 10 10 9 10 12 13 13 13 12 13 15 19 22 20 20
20 16 15 9 13 9 7 8 8 14 15 9 13 11 11 6 5 4 2 3 1 4 6 10 10 9 9 8 8 9 7 8 9 10 11 12 11 11 13 16 18 17 15
28 30 18 11 15 21 11 12 10 5 7 12 18 18 14 12 11 11 8 6 5 3 3 6 9 10 10 11 10 9 7 6 8 9 9 10 9 10 10 12 14 12 11
40 36 25 17 17 25 21 17 22 18 11 9 10 14 14 11 10 14 13 13 13 7 5 6 7 9 10 12 13 12 10 8 7 6 6 5 7 9 10 8 8 8 8
50 36 27 21 22 28 25 20 20 21 25 17 13 20 22 18 14 12 14 17 19 16 14 11 11 11 10 11 13 13 13 9 7 5 3 1 2 6 9 9 7 6 7
61 50 41 32 29 32 30 32 30 28 31 32 19 18 22 28 26 21 21 21 23 23 21 21 19 17 16 16 17 17 15 15 12 9 6 4 4 3 3 6 7 7 7
67 61 60 47 46 41 38 38 37 36 36 34 28 25 32 24 23 22 23 27 29 30 27 26 26 24 24 24 23 21 19 17 18 14 9 8 9 9 8 8 10 15 12
68 67 65 65 61 56 54 46 45 40 40 40 41 34 37 34 28 28 28 31 25 26 30 35 35 34 30 31 31 29 24 21 21 21 16 13 15 14 15 14 15 17 15
75 76 76 76 72 65 64 58 46 43 46 46 50 49 44 41 41 40 41 35 37 36 31 31 32 39 37 34 35 33 32 28 27 27 26 20 19 20 19 19 20 21 20
96 94 87 87 81 72 71 72 59 55 51 51 53 52 53 54 54 49 47 46 46 43 45 40 37 31 37 38 36 34 37 36 33 33 32 31 26 24 25 24 26 26 25
100 97 97 94 90 82 79 78 76 64 60 61 61 52 55 58 59 57 59 54 50 46 48 48 45 40 37 38 35 34 34 35 36 36 36 36 34 31 30 31 32 32 31
112 108 103 99 100 93 85 84 82 81 76 70 67 65 66 68 69 67 65 61 54 53 52 56 54 50 47 44 41 42 40 38 37 39 39 37 37 39 38 37 37 37 37
116 112 109 103 104 102 97 98 93 92 90 82 83 82 78 83 82 77 73 69 62 62 64 65 61 61 59 59 58 55 52 49 43 44 43 43 42 42 43 40 42 42 41
124 121 117 114 113 112 110 107 104 101 100 99 95 94 94 92 89 90 87 84 83 80 74 75 72 70 70 70 67 66 63 57 55 52 50 47 46 46 46 45 43 47 46
129 127 124 121 120 118 118 114 111 108 107 107 107 107 106 105 107 106 102 97 95 93 90 85 80 78 76 76 71 69 71 68 63 61 56 52 48 50 50 48 45 46 51
125 126 127 127 127 126 124 122 119 115 111 108 107 106 105 103 106 110 107 105 102 104 100 95 89 84 85 88 86 84 78 71 71 68 63 58 54 51 53 52 50 50 51
129 127 125 124 122 121 119 117 114 113 111 108 106 105 105 104 105 107 108 108 107 106 103 102 104 98 97 93 92 89 87 85 78 75 70 63 60 57 54 56 56 54 53
132 132 130 129 128 127 125 124 122 119 118 116 114 112 109 107 108 108 108 108 107 108 107 105 104 102 100 95 95 93 89 85 84 80 77 72 65 62 61 59 60 61 58
134 133 133 133 132 131 130 129 128 127 125 123 122 121 119 116 114 113 113 113 112 110 111 106 105 105 103 100 98 94 92 90 89 86 83 80 75 69 66 65 66 67 66
141 140 139 139 136 135 134 133 133 133 132 131 130 128 126 124 122 121 120 119 117 115 114 111 110 107 106 106 104 103 102 100 95 93 90 86 83 78 75 71 71 71 74
140 142 144 145 145 143 142 141 141 139 137 137 136 135 134 132 130 129 127 126 125 122 121 119 117 115 115 111 109 107 105 106 104 99 96 93 89 86 83 81 77 77 78
133 135 137 139 141 144 147 148 149 148 147 146 144 143 142 141 138 136 134 133 133 131 128 125 124 123 122 120 119 115 112 110 109 104 101 99 96 94 91 89 87 84 83
126 128 129 131 133 135 137 139 143 147 149 151 151 151 150 149 146 145 143 141 140 139 137 135 133 132 130 127 125 123 121 119 116 114 111 108 106 105 100 97 96 94 92
115 118 119 120 122 123 124 127 129 132 135 138 142 144 147 148 148 148 148 149 149 149 147 145 143 142 140 137 134 132 130 127 125 123 120 117 117 113 109 107 105 102 101
97 101 105 109 112 113 114 116 119 121 122 123 123 125 127 129 131 134 139 143 146 148 150 149 148 148 148 146 144 140 137 135 134 132 130 128 126 124 120 116 115 113 110

GFSGL_250_spd_114.txt.gz
Wind_Speed
18 12 10 10 8 10 9 7 14 14 9 12 12 10 9 10 11 10 12 12 11 11 13 13 13 13 13 13 13 13 13 16 17 18 15 15 17 16 20 24 28 27 25
25 17 15 11 7 7 8 7 4 9 7 7 14 10 11 8 7 7 6 6 8 8 9 12 12 11 11 11 12 11 11 13 15 17 14 11 13 15 19 22 23 23 19
28 25 21 17 13 10 9 6 5 5 5 4 8 11 11 9 8 6 7 6 5 7 8 8 12 13 14 14 12 11 11 12 13 14 13 10 10 13 18 19 19 18 15
29 32 26 25 19 19 15 11 11 7 8 6 4 6 8 8 6 5 3 5 7 5 6 8 7 10 13 13 15 14 10 10 9 10 10 9 9 12 14 16 14 12 9
35 35 35 32 22 19 20 18 18 15 9 12 10 6 3 6 8 10 8 2 4 5 8 10 10 9 10 13 13 16 15 10 8 6 6 6 8 7 7 9 9 8 6
40 39 41 45 34 26 23 20 25 21 16 17 19 16 10 11 11 12 13 11 11 10 10 13 15 16 15 14 15 17 20 17 13 7 5 3 3 4 7 5 4 4 7
50 45 46 48 43 37 34 27 29 25 21 20 22 23 24 19 17 15 16 15 14 17 13 13 17 19 19 18 19 17 17 17 17 12 6 2 3 4 6 7 7 11 10
56 50 53 55 50 44 36 31 31 30 28 27 29 27 28 37 33 24 21 16 17 15 16 15 19 21 24 26 23 22 20 18 17 15 11 7 8 9 9 9 11 15 16
69 64 61 63 60 54 49 39 34 33 32 33 33 37 34 36 39 35 29 28 27 22 23 24 21 19 21 25 28 29 27 24 23 21 17 14 11 13 14 14 16 18 23
75 71 70 73 70 67 64 58 53 56 43 42 44 42 44 45 44 43 41 40 36 35 34 36 30 30 28 28 28 28 27 28 26 24 24 21 17 16 20 22 24 25 27
79 77 77 78 79 76 73 73 74 71 63 58 52 53 50 47 50 50 47 46 46 44 42 37 38 35 35 35 33 31 31 26 25 24 25 24 23 22 22 25 28 31 32
89 89 86 84 85 81 78 76 75 74 71 68 65 64 56 53 53 52 54 55 56 55 55 51 49 50 43 39 33 32 34 31 27 27 28 29 29 29 28 28 31 36 37
94 97 96 92 88 88 85 84 83 80 76 75 72 72 71 65 58 59 57 61 60 51 54 58 60 54 53 50 41 37 41 43 40 37 36 35 32 33 33 34 35 38 42
103 102 100 103 99 95 92 91 87 87 84 83 82 78 76 75 74 72 66 67 60 65 72 73 68 67 65 60 53 51 46 48 53 49 50 52 51 47 43 41 42 39 42
106 105 109 109 108 109 104 101 103 104 102 102 93 91 87 85 82 81 80 79 75 79 77 73 75 77 73 71 70 61 57 59 59 60 59 58 60 57 57 51 48 46 45
121 119 114 112 112 114 113 112 109 109 109 109 108 106 100 97 95 89 89 88 88 89 79 76 85 87 81 82 79 78 76 67 62 66 68 67 64 63 57 56 56 54 51
135 134 131 127 123 119 120 120 120 119 118 118 118 114 110 108 105 103 103 103 98 99 99 98 100 99 99 96 96 94 93 90 87 83 85 82 75 71 69 75 70 63 57
133 137 140 140 137 133 128 124 124 126 128 128 127 123 122 119 116 113 115 115 114 113 110 105 105 106 106 107 109 110 109 106 103 99 91 89 87 77 78 76 78 73 68
136 136 141 142 141 140 139 137 135 134 133 134 135 134 132 131 129 127 124 121 119 118 117 116 113 110 107 103 103 104 106 109 106 102 98 93 92 90 89 81 81 80 75
141 142 141 145 148 148 149 149 148 145 142 138 137 139 138 137 136 134 133 132 130 127 124 118 112 109 108 105 103 102 104 106 105 106 105 103 97 92 93 88 84 84 81
145 145 145 147 148 150 151 150 148 146 145 143 140 138 136 136 136 135 134 132 129 127 125 123 120 118 115 113 111 108 106 106 106 103 102 100 101 99 96 94 90 87 86
134 138 145 149 150 150 150 150 150 149 149 148 147 146 145 144 143 142 141 140 138 136 133 131 129 127 124 122 120 118 117 115 113 110 106 104 101 99 98 98 96 94 93
131 132 135 136 138 142 146 149 153 155 155 154 152 152 150 149 148 147 146 145 144 143 141 139 136 134 132 131 130 128 126 124 123 121 118 112 109 106 103 101 99 99 97
129 129 130 131 133 135 136 138 140 142 145 149 152 156 158 157 156 155 154 152 150 148 146 145 144 142 139 137 136 136 134 133 132 130 128 125 122 119 115 111 109 105 103
120 121 122 122 124 125 127 130 132 135 137 140 142 144 146 148 151 152 153 153 152 152 152 152 152 152 150 148 146 145 144 141 139 137 135 132 130 129 127 123 120 117 113
105 106 107 109 111 112 114 117 121 123 126 128 131 133 134 135 134 135 135 135 135 136 139 142 144 146 149 151 152 152 151 151 148 145 143 140 138 136 135 132 129 126 123

GFSGL_250_spd_117.txt.gz
Wind_Speed
15 12 9 8 5 7 13 13 13 13 14 15 14 12 10 15 14 14 14 13 12 12 12 11 13 14 15 15 15 15 17 19 20 18 17 18 18 23 29 28 25 21 19
18 17 16 17 15 9 9 9 9 11 11 8 12 13 10 11 10 12 11 14 13 12 12 13 14 17 17 16 14 14 15 16 17 17 15 15 17 22 25 26 20 16 17
22 25 23 20 23 13 12 9 9 8 9 10 12 11 12 10 8 8 8 7 7 9 10 11 12 15 17 17 17 15 14 14 14 14 12 13 14 19 21 21 18 17 12
26 29 28 26 28 20 19 17 14 9 12 13 15 15 16 13 7 10 12 7 3 5 8 11 11 12 14 17 15 19 17 15 12 12 9 9 10 14 16 16 12 13 14
36 36 39 34 32 30 26 23 19 17 14 11 16 15 12 9 7 7 11 7 3 1 1 4 7 10 15 17 18 18 19 16 13 11 8 6 6 9 11 11 9 9 11
44 40 45 47 39 33 33 28 28 23 22 20 17 17 17 10 9 8 4 6 1 3 3 2 5 10 10 14 14 13 13 13 13 8 7 3 3 4 5 4 7 6 5
52 49 49 50 47 46 40 35 31 31 27 27 26 23 22 20 14 16 16 14 12 9 6 2 3 7 8 12 12 11 14 13 12 11 8 7 3 3 6 7 5 8 8
54 57 60 57 59 54 47 41 40 37 38 34 33 29 25 23 25 26 18 23 24 19 12 14 10 11 9 10 12 15 15 15 14 10 7 6 7 8 10 12 11 11 16
59 60 60 64 64 61 63 63 55 46 46 40 42 37 32 26 26 29 30 24 26 28 25 27 16 22 19 25 18 14 16 19 19 15 10 8 7 10 13 16 16 17 21
71 72 74 70 70 66 63 56 54 50 51 49 46 43 41 35 32 33 35 34 27 32 38 33 36 33 29 27 26 18 18 18 20 25 21 16 14 14 16 17 20 22 24
75 75 77 78 76 74 66 64 60 59 59 53 49 48 42 40 38 40 39 40 40 37 38 39 41 39 33 30 28 34 34 25 25 23 22 21 16 17 17 19 20 27 32
76 80 81 76 79 76 70 70 68 67 69 67 66 60 56 56 60 61 57 52 49 46 44 44 46 46 45 43 43 44 39 37 31 29 23 28 31 26 22 19 19 22 26
86 83 86 88 88 87 82 82 78 77 75 74 75 75 75 73 70 71 70 65 60 53 55 56 53 51 53 49 52 51 48 48 47 44 42 34 31 33 37 39 37 36 35
100 96 92 94 95 94 91 89 92 90 86 83 81 81 81 79 81 80 78 74 71 65 64 60 61 58 56 56 56 57 54 52 53 53 51 55 50 44 44 43 47 45 45
105 100 100 100 100 100 101 99 96 94 92 89 88 87 88 89 87 87 83 81 82 76 70 72 71 70 70 69 66 61 64 60 60 59 57 59 58 58 57 56 50 52 53
109 111 109 105 107 105 103 104 101 100 98 95 96 96 96 94 92 92 91 91 88 85 77 77 77 76 78 77 75 77 79 71 68 68 66 66 66 68 66 69 61 58 62
117 117 114 122 113 111 110 110 110 110 109 106 105 107 104 98 97 99 99 99 97 94 91 91 88 84 83 85 89 84 82 81 86 87 84 83 85 81 85 85 83 76 81
125 127 125 124 122 119 118 117 116 117 119 118 118 116 114 114 115 112 111 110 110 111 107 106 104 100 98 97 94 89 94 98 96 95 99 100 97 93 91 93 95 96 91
128 129 128 129 134 136 131 128 126 125 122 120 121 121 120 120 119 121 123 121 122 120 115 115 112 113 110 108 108 109 106 106 106 107 109 111 108 104 102 100 96 96 93
133 133 133 134 133 138 141 138 136 135 134 132 130 130 130 129 129 126 125 126 125 127 131 128 128 125 125 121 122 121 120 119 121 123 122 118 109 103 101 98 96 94 92
137 136 138 138 138 139 139 145 148 149 147 145 142 141 141 141 142 139 138 138 137 136 136 135 132 134 132 133 134 132 131 128 124 121 118 114 111 106 100 99 100 99 97
129 133 139 143 143 143 144 146 147 149 152 153 151 149 149 150 153 153 151 152 154 154 151 151 151 149 145 143 142 141 142 137 132 130 127 125 123 119 114 111 107 106 106
125 127 132 135 140 146 151 151 151 152 153 154 154 153 152 152 152 151 153 154 157 158 160 159 157 155 154 153 152 152 151 148 146 144 141 137 135 133 130 127 122 118 115
124 126 126 127 131 135 139 143 146 150 154 156 157 157 157 157 158 158 158 158 159 160 159 158 159 159 161 162 161 158 155 152 151 150 148 145 144 143 141 138 134 132 128
114 117 119 121 123 125 126 128 131 134 138 142 145 148 151 154 157 159 160 161 161 162 162 162 162 162 163 164 164 163 161 160 160 160 158 155 153 152 151 149 146 142 138
100 104 107 109 111 112 113 114 115 118 120 123 125 128 132 136 140 146 150 150 149 149 151 153 154 153 152 152 153 154 153 152 151 151 151 153 155 157 157 156 154 152 150

GFSGL_250_spd_120.txt.gz
Wind_Speed
10 8 7 8 13 10 14 16 15 12 12 12 12 14 13 13 16 14 16 15 15 15 14 14 13 13 13 14 15 17 18 20 19 19 16 20 25 22 21 20 16 20 19
17 15 12 9 12 14 13 14 14 12 12 11 13 12 10 8 9 12 14 13 12 14 14 15 16 16 16 14 15 15 16 18 17 17 17 21 23 22 19 16 17 14 14
26 23 20 14 16 19 19 17 9 12 14 15 12 10 12 11 11 8 9 9 9 9 10 10 11 12 14 15 14 14 14 15 15 13 13 17 21 19 13 14 12 10 13
31 32 27 24 18 21 23 21 20 15 16 17 17 15 17 17 16 14 13 9 6 5 5 6 9 10 11 14 17 16 15 14 14 11 10 13 15 16 15 11 9 11 14
38 36 35 28 26 24 26 28 25 21 19 19 20 20 18 12 17 17 10 8 7 3 4 6 8 10 12 11 12 12 14 15 14 12 8 9 10 9 9 9 8 10 4
44 44 41 40 36 32 32 31 33 32 26 23 24 19 20 17 15 13 11 9 4 3 1 3 8 10 8 9 9 11 11 8 11 13 11 5 5 7 6 2 3 7 5
53 52 51 52 47 41 38 39 35 39 35 31 30 28 25 22 19 18 16 10 10 6 9 6 5 8 8 7 9 11 9 7 7 6 7 6 1 1 7 5 5 9 11
61 58 55 54 55 50 42 42 44 41 40 41 38 34 32 31 32 30 23 18 15 16 17 15 10 11 10 11 12 12 11 11 5 4 6 6 3 4 10 11 13 10 15
65 60 57 53 51 50 50 50 48 48 48 44 40 41 41 38 37 35 33 29 20 24 24 19 25 17 15 18 17 18 8 8 13 11 8 9 10 12 12 15 17 17 18
66 65 65 60 59 58 61 65 64 60 58 54 48 48 44 46 48 43 37 35 37 29 23 22 27 34 28 25 23 23 21 19 16 11 12 17 15 17 17 18 17 21 22
73 67 69 67 67 63 62 69 71 67 63 65 62 61 61 60 56 52 51 42 42 39 32 30 30 32 34 31 27 27 31 21 26 28 18 24 16 19 16 22 21 21 20
80 75 74 74 71 68 68 72 72 70 71 70 71 72 63 64 59 57 57 51 50 46 41 45 48 46 40 37 37 36 35 33 34 35 33 30 26 24 29 31 29 24 25
89 83 82 80 80 79 73 74 79 78 78 76 75 76 70 67 65 60 61 61 56 56 52 53 58 58 53 51 46 43 43 40 40 42 38 39 37 32 28 34 35 34 38
98 94 90 89 83 84 82 80 82 84 84 79 81 79 78 77 72 67 67 70 69 66 69 68 66 65 64 62 57 53 50 48 47 46 51 48 48 47 48 43 40 43 46
98 102 99 98 95 89 87 83 87 84 88 88 84 81 77 76 81 79 76 77 82 80 77 76 74 72 70 70 71 68 63 61 62 59 59 62 59 58 59 61 61 53 46
104 103 106 108 103 101 98 96 92 89 90 91 93 91 89 93 86 84 87 84 86 88 88 86 81 81 82 83 81 80 80 81 76 74 72 68 73 66 62 66 68 66 68
111 110 110 108 113 110 106 108 105 101 96 98 99 100 100 99 101 100 100 96 94 96 98 94 92 92 92 94 93 90 86 84 83 77 72 70 70 73 77 71 71 72 77
117 116 115 115 113 115 119 114 115 115 110 106 105 105 105 106 107 108 110 108 107 103 103 104 103 101 99 101 99 93 88 88 87 80 77 75 77 84 92 83 79 77 85
121 122 121 120 119 120 119 123 124 121 122 121 115 115 117 116 115 115 115 114 113 112 111 112 111 111 108 108 107 101 102 103 106 106 104 101 102 100 97 97 87 90 96
115 121 125 125 125 125 125 124 125 129 128 126 128 128 126 124 124 123 125 125 124 122 120 120 120 117 116 110 112 113 111 111 113 113 110 106 106 109 113 111 111 110 109
119 119 120 125 129 130 131 130 130 130 132 132 132 134 136 134 133 130 127 130 131 129 129 130 130 131 134 132 131 131 132 132 129 128 126 124 126 126 124 127 124 124 123
119 122 123 123 123 125 130 133 134 135 135 136 136 139 139 140 142 143 141 140 139 139 140 141 141 142 141 143 141 138 138 134 134 133 133 135 135 134 133 133 137 136 135
115 115 120 124 126 126 127 128 131 136 139 140 141 141 143 143 146 148 150 149 149 149 151 150 148 149 149 149 149 147 144 143 143 144 147 148 148 150 151 151 151 153 154
123 122 119 117 115 119 126 130 132 134 135 137 139 142 144 147 148 150 153 155 156 157 158 158 161 163 163 161 159 159 157 159 160 160 161 162 161 159 158 157 156 156 156
120 121 121 120 119 117 118 120 123 128 133 138 139 140 141 143 145 149 152 154 156 158 159 160 161 161 161 163 163 165 168 169 169 169 169 168 166 165 164 164 163 161 159
108 111 112 113 113 113 112 111 112 114 117 121 125 131 136 140 144 146 149 151 152 154 154 155 155 155 155 156 158 159 160 162 163 163 161 161 161 160 160 160 161 159 158

GFSGL_250_spd_123.txt.gz
Wind_Speed
18 11 14 12 13 11 11 10 12 13 13 14 13 12 12 12 14 14 15 13 10 10 9 9 10 11 13 14 18 19 20 16 13 19 22 21 21 21 20 20 21 21 23
25 19 14 16 16 12 11 11 12 12 9 11 11 10 12 10 10 10 12 10 10 9 9 10 9 10 13 14 15 17 18 16 13 13 19 19 19 19 18 17 14 14 20
30 25 21 18 20 18 15 16 14 12 13 12 10 7 7 9 8 8 9 9 10 8 5 5 7 8 10 12 12 14 17 15 13 12 17 17 14 15 16 14 11 14 15
35 33 27 25 23 25 21 22 20 17 15 15 12 10 11 9 10 7 7 8 10 13 13 12 7 4 7 13 15 14 15 16 13 12 14 15 15 16 11 12 15 14 9
38 38 36 32 30 29 28 25 24 24 22 18 19 14 16 16 10 3 5 7 7 7 11 11 12 13 12 9 8 10 15 14 14 11 12 13 12 9 8 9 10 3 6
43 40 41 38 35 34 30 29 30 27 25 24 24 23 18 20 19 18 8 5 4 6 6 4 8 9 9 9 11 9 6 8 11 11 9 8 9 6 2 1 2 5 2
52 51 45 43 42 41 41 41 41 34 32 30 29 28 30 28 24 21 17 13 7 5 6 8 5 1 8 7 10 12 11 5 5 6 6 4 5 7 7 5 5 8 8
64 62 55 52 47 47 46 44 45 42 37 36 35 36 35 40 35 27 23 23 20 19 17 14 15 10 7 8 10 9 12 8 5 4 3 3 3 5 8 11 14 13 14
68 69 64 62 58 55 54 52 53 52 49 45 39 40 45 41 44 39 31 33 30 29 28 22 19 23 21 16 11 12 14 11 10 11 7 6 10 11 12 11 16 18 21
69 71 69 69 63 62 60 58 57 58 57 55 47 45 48 46 48 49 44 42 39 38 38 36 35 29 27 25 27 20 20 20 18 14 15 13 12 9 12 13 15 14 19
81 81 78 75 72 70 69 66 63 62 63 59 57 55 54 53 53 53 50 52 46 40 46 46 41 40 37 30 29 31 30 28 28 30 25 24 21 22 17 16 18 22 22
89 86 85 82 79 77 76 73 69 65 65 59 65 66 65 63 63 61 60 56 55 55 50 55 54 50 50 43 39 37 39 35 33 35 34 31 35 29 29 27 28 29 29
93 95 93 91 85 84 82 80 75 73 73 73 70 69 71 71 70 69 67 67 66 67 64 60 60 61 58 57 51 46 47 49 48 47 43 41 41 40 39 38 39 46 43
98 95 96 97 93 90 87 85 82 79 81 81 76 71 71 76 76 75 72 72 73 70 66 64 67 58 63 66 65 61 59 56 56 56 57 53 49 49 49 53 46 48 49
104 102 99 95 93 97 95 90 88 84 83 87 85 79 79 80 80 80 81 81 78 77 77 71 71 74 69 71 70 70 72 71 68 64 58 56 53 57 55 56 59 59 62
106 107 103 101 99 95 97 99 96 93 92 90 93 91 89 86 84 86 87 88 89 87 84 82 81 79 82 78 78 76 77 77 76 78 75 75 72 74 72 73 73 73 70
110 107 106 105 104 103 101 99 103 105 101 97 94 95 95 97 94 91 85 83 85 90 92 86 85 86 89 88 86 87 85 83 84 86 84 85 87 88 86 87 87 81 81
105 109 110 111 110 109 109 109 108 107 108 110 107 103 100 98 101 103 104 98 90 85 84 87 92 93 91 98 98 102 99 95 94 92 92 97 99 100 97 96 95 91 85
106 108 108 111 114 116 117 116 115 114 113 112 112 115 116 113 109 105 105 108 109 110 108 105 102 101 101 99 99 104 105 107 107 106 108 107 106 106 108 108 108 101 92
111 111 109 109 111 115 121 123 122 120 119 118 118 118 117 120 121 119 118 115 112 110 112 115 116 115 114 114 117 118 118 117 117 116 115 112 109 109 110 110 107 107 112
112 111 114 113 113 116 118 121 122 125 126 125 124 124 124 124 122 124 128 127 127 125 123 122 121 120 119 120 122 125 125 124 125 126 125 124 124 124 123 122 122 120 117
113 113 116 116 117 119 119 120 119 120 123 127 129 130 129 129 129 129 130 130 131 134 135 135 136 135 132 130 130 132 132 132 132 134 135 135 132 130 131 131 131 131 129
116 116 117 117 119 120 121 122 123 123 123 124 126 127 131 131 133 133 134 135 135 135 137 138 140 142 144 145 146 148 148 147 150 149 146 144 147 148 146 145 142 142 143
122 120 119 117 117 117 119 121 123 123 125 126 127 128 128 129 130 132 135 137 139 142 143 144 145 147 149 150 152 154 157 157 155 158 159 161 158 154 154 153 153 153 153
122 123 123 123 121 120 120 120 117 118 120 121 124 127 129 129 131 133 133 135 137 139 141 143 147 151 153 155 158 158 159 160 160 161 163 163 163 164 164 165 167 168 167
111 113 117 121 123 123 123 121 121 120 120 119 117 117 118 122 126 129 132 134 136 139 141 143 145 149 151 152 154 154 155 156 158 159 160 161 162 163 163 164 165 166 166

GFSGL_250_spd_129.txt.gz
Wind_Speed
8 9 12 8 6 5 8 5 4 7 7 11 14 16 18 15 14 16 18 19 18 16 16 17 19 18 19 17 11 8 6 9 9 8 14 24 20 15 14 18 21 27 26
17 14 15 15 13 8 8 6 6 6 4 3 5 6 10 14 15 17 16 12 14 16 17 17 17 15 10 10 13 12 11 9 9 11 12 22 15 16 17 16 18 21 25
33 22 15 21 20 17 13 10 9 10 9 6 2 2 1 4 9 14 18 19 15 14 12 12 13 13 13 9 7 7 8 10 13 12 16 22 10 9 9 16 15 11 11
29 30 25 21 24 22 22 20 17 15 17 15 11 9 8 3 4 3 9 13 13 14 16 16 15 12 11 11 7 4 2 5 7 8 13 16 12 10 8 9 12 9 8
16 28 28 25 23 27 27 26 26 23 20 22 17 16 17 12 10 8 8 6 6 9 9 12 12 13 12 8 8 8 5 3 7 9 9 9 14 13 7 4 6 7 8
31 40 37 20 23 32 30 31 29 29 29 25 25 23 22 23 22 18 14 13 10 10 7 7 8 5 5 6 7 7 7 9 4 6 8 6 7 10 11 6 5 3 3
54 54 50 42 40 42 36 33 38 34 34 33 27 25 26 27 27 25 25 22 21 19 18 16 11 9 3 1 5 5 3 6 3 2 3 4 9 11 11 10 8 7 7
53 52 64 62 47 38 38 39 31 35 39 40 39 37 32 33 35 31 31 30 26 22 22 22 22 20 19 13 10 9 10 7 4 5 2 2 3 6 10 12 11 13 14
72 71 69 70 66 59 53 47 44 44 38 44 43 45 45 43 42 40 32 33 34 35 31 30 27 22 24 26 25 18 17 19 17 15 12 12 11 9 8 8 8 7 9
79 80 76 77 76 72 67 64 62 58 54 52 50 52 53 50 46 44 42 42 39 39 44 43 38 36 32 32 32 31 31 28 28 26 27 24 24 22 23 20 20 23 25
82 85 85 85 83 81 78 75 73 71 68 64 61 60 59 58 56 56 55 51 48 48 48 48 50 49 42 39 41 40 39 38 35 32 32 32 32 32 35 37 35 37 32
88 86 85 87 89 88 87 84 80 78 76 74 73 72 70 67 65 65 65 62 59 59 58 54 53 52 56 51 48 49 50 51 45 41 42 43 41 45 45 45 42 41 42
93 93 93 92 89 89 89 89 86 83 84 84 83 82 80 79 75 74 73 72 71 70 69 66 62 56 60 59 54 55 57 57 56 58 54 51 50 51 52 54 53 53 51
92 94 100 100 101 97 94 90 90 90 88 86 88 90 88 89 88 83 82 82 81 79 76 74 71 70 68 66 67 64 64 64 61 62 61 63 64 62 58 60 62 64 64
108 106 100 108 107 104 100 100 98 95 93 92 93 93 92 88 88 87 88 85 86 84 85 82 80 77 77 75 73 76 77 75 73 73 70 70 71 71 69 65 66 65 70
102 105 106 104 113 112 110 108 105 104 103 100 99 101 99 97 96 93 90 92 90 89 88 88 89 86 82 83 82 83 83 85 85 83 82 82 79 79 76 74 74 72 75
109 106 105 105 101 107 113 113 113 111 111 108 106 104 103 106 102 100 101 101 100 98 97 97 98 96 95 95 92 90 91 94 93 91 92 92 89 88 86 86 86 84 82
111 111 112 116 123 123 122 120 121 120 118 116 114 112 110 108 108 110 111 111 112 113 111 109 109 108 106 105 103 101 99 99 99 100 101 98 99 98 97 97 98 95 93
117 114 114 114 117 117 114 118 120 123 123 123 121 119 119 117 115 115 116 116 115 116 117 117 117 116 115 113 113 113 112 110 108 106 107 107 108 110 110 107 106 106 106
110 110 111 112 113 113 113 116 116 116 117 119 121 122 122 121 122 121 119 118 119 119 119 119 120 120 119 117 118 117 116 114 114 114 115 115 113 113 113 114 113 112 113
99 100 102 105 108 111 113 113 113 112 116 117 119 121 122 122 122 123 124 123 122 121 121 122 122 122 122 121 121 121 121 121 120 118 119 120 122 122 123 122 122 122 120
98 99 102 103 102 104 106 108 111 113 113 114 117 120 121 120 123 124 124 123 124 123 124 124 125 127 126 125 125 124 123 123 125 125 125 125 126 127 128 129 130 130 130
105 105 105 106 106 107 108 107 107 108 107 108 114 119 117 120 122 124 123 124 124 125 126 127 127 127 129 128 129 129 128 129 130 132 132 133 133 134 135 136 136 137 138
102 104 105 105 110 110 111 111 112 113 112 110 111 113 116 118 117 119 122 123 124 126 126 126 126 125 127 126 125 126 128 128 129 131 132 134 136 137 138 140 139 141 142
89 90 94 99 101 107 113 114 114 115 116 116 116 117 118 118 116 116 116 117 119 119 120 123 123 125 127 128 127 128 130 131 132 134 135 137 137 138 140 142 142 143 144
77 78 84 87 90 94 102 105 108 111 111 114 117 119 120 120 120 117 115 116 117 117 119 117 117 119 118 123 122 123 126 127 129 133 134 136 137 139 141 143 144 145 146

GFSGL_250_spd_135.txt.gz
Wind_Speed
6 6 5 2 1 1 4 6 1 7 9 10 10 11 12 12 12 11 12 13 13 11 12 11 11 13 13 14 18 14 10 7 8 13 7 11 14 21 19 11 10 8 11
10 12 13 9 6 5 4 5 4 5 3 2 5 7 10 12 10 9 8 8 10 12 11 11 11 11 11 11 12 12 6 7 7 8 9 10 13 11 15 16 15 7 3
12 13 13 14 11 9 10 10 10 11 10 7 5 4 6 9 6 7 9 8 8 7 8 10 10 11 11 10 9 9 9 3 3 6 12 15 14 12 10 8 13 13 6
23 14 16 16 19 18 16 15 17 14 11 10 13 10 9 10 7 6 2 4 3 5 4 5 5 7 9 8 7 6 4 1 2 7 14 12 8 7 5 7 8 7 7
31 28 26 27 28 26 20 25 20 19 18 15 17 15 15 15 14 14 10 8 4 2 3 2 3 4 5 9 10 6 4 3 0 5 16 13 8 4 6 3 5 3 5
38 38 37 30 31 39 32 22 23 22 22 19 17 18 19 20 23 20 17 16 13 12 9 10 7 6 4 2 4 5 5 4 1 3 4 11 18 17 19 17 15 9 7
41 42 43 41 33 37 36 29 27 23 27 22 17 19 22 25 26 26 26 19 22 22 21 16 16 15 10 8 7 7 4 2 3 5 8 6 8 9 11 15 15 13 11
45 51 51 46 35 35 34 37 35 33 26 25 22 30 24 25 25 28 29 27 27 32 31 28 25 24 26 21 19 18 17 14 13 14 12 10 11 10 10 8 11 14 17
45 45 47 60 46 43 41 43 42 39 38 36 28 35 40 36 34 38 35 31 28 32 37 32 33 34 34 36 36 29 28 28 27 23 23 22 22 21 21 23 20 19 22
52 49 47 51 48 43 41 44 44 45 45 46 47 47 43 41 43 44 44 44 47 45 40 42 40 37 40 41 42 37 34 35 39 35 32 33 30 31 31 29 31 30 32
60 57 59 58 61 57 52 53 54 58 58 58 60 58 56 49 38 41 51 52 55 53 52 50 48 47 48 46 45 48 45 44 43 44 42 42 42 39 38 39 38 40 41
72 67 63 70 67 68 70 70 65 63 65 67 65 64 63 62 59 44 35 46 53 54 56 55 54 56 57 55 53 53 53 50 51 53 55 54 54 55 54 52 52 51 51
68 70 69 69 79 78 81 84 85 82 79 77 74 73 70 68 68 64 66 68 70 72 69 67 67 67 67 68 69 67 66 63 62 59 57 60 62 63 60 57 60 64 64
70 68 65 65 69 75 76 82 86 92 91 87 87 84 80 79 80 85 81 84 85 83 84 82 80 81 79 79 78 79 79 76 75 74 74 74 72 74 72 70 70 69 70
85 84 77 77 75 80 80 83 86 88 92 95 100 99 96 96 96 95 95 95 97 99 95 92 91 89 88 88 87 88 87 86 86 87 87 86 85 84 84 83 81 80 78
105 102 100 94 96 95 88 92 91 93 98 102 104 105 104 103 104 104 105 104 103 101 100 95 89 86 88 89 89 89 91 93 92 92 92 93 93 92 92 92 90 89 89
120 114 109 111 105 106 108 109 112 107 104 105 108 105 108 106 108 109 110 107 103 104 103 100 99 97 97 99 99 98 97 99 100 100 99 100 101 100 99 99 98 97 95
139 142 143 142 140 135 129 130 126 124 123 120 122 118 118 115 111 113 114 114 113 112 112 108 108 110 108 106 102 102 103 105 107 107 108 111 109 107 106 108 107 107 108
131 138 142 141 142 143 143 141 135 134 134 130 131 129 127 128 130 124 120 117 117 115 116 118 115 116 116 114 118 122 124 127 125 123 124 117 115 113 113 112 110 110 111
128 132 133 134 135 135 134 136 137 135 137 138 137 139 137 138 138 132 132 133 134 136 134 123 116 119 127 132 135 135 139 135 128 125 122 120 120 123 124 123 121 119 120
113 117 122 126 133 136 136 135 136 137 134 134 136 140 143 146 147 149 153 153 149 146 150 144 141 144 140 142 138 135 130 128 127 125 123 124 124 123 123 125 127 128 128
112 112 114 116 119 120 122 125 132 134 135 138 140 139 138 137 141 141 141 140 139 137 135 140 137 132 132 131 132 129 129 130 131 131 131 131 130 129 130 131 133 132 130
106 110 113 114 114 114 115 117 119 121 123 126 129 131 132 133 134 135 136 138 137 138 136 137 137 135 133 131 132 130 129 130 130 132 137 140 139 140 142 139 135 133 131
91 96 101 102 104 105 105 105 109 113 116 121 121 122 125 125 128 133 136 137 137 137 139 141 140 135 131 131 134 141 140 137 134 130 126 124 125 123 123 125 127 127 127
78 81 81 82 83 85 88 93 99 104 110 114 114 115 116 119 122 123 126 132 138 137 135 138 138 141 143 138 133 127 124 123 122 121 119 119 120 120 120 120 121 121 122
76 75 74 75 76 76 78 82 82 84 87 91 96 102 108 112 115 117 120 122 123 125 126 127 126 125 125 124 124 123 123 122 122 123 123 122 120 120 120 121 121 123 124